Wetterdaten: Samstag, 25.08.2018
Datum Zeit Temp. Aussen Temp. o. S. +5cm Feuchte Auss Luftdruck Regen Sonnenschein Regendauer Solar Windben Empfang
25.08.2018 00:00 15,8 C 15,0 C 15,0 C 67 % 1009,3 hPa 0,0 l/m 0 min 0 min 0 W/m 6,8 km/h (2 Bft) 95,74 %
25.08.2018 00:02 15,8 C 15,0 C 15,0 C 67 % 1009,2 hPa 0,0 l/m 0 min 0 min 0 W/m 4,5 km/h (1 Bft) 95,12 %
25.08.2018 00:04 15,8 C 15,0 C 15,0 C 67 % 1009,3 hPa 0,0 l/m 0 min 0 min 0 W/m 4,5 km/h (1 Bft) 97,37 %
25.08.2018 00:08 15,7 C 15,0 C 15,0 C 66 % 1009,2 hPa 0,0 l/m 0 min 0 min 0 W/m 6,8 km/h (2 Bft) 94,79 %
25.08.2018 00:10 15,7 C 15,0 C 15,0 C 66 % 1009,2 hPa 0,0 l/m 0 min 0 min 0 W/m 4,5 km/h (1 Bft) 95,74 %
25.08.2018 00:12 15,7 C 15,0 C 15,0 C 66 % 1009,3 hPa 0,0 l/m 0 min 0 min 0 W/m 4,5 km/h (1 Bft) 93,62 %
25.08.2018 00:14 15,7 C 15,0 C 15,0 C 66 % 1009,3 hPa 0,0 l/m 0 min 0 min 0 W/m 6,8 km/h (2 Bft) 93,62 %
25.08.2018 00:16 15,7 C 15,0 C 15,0 C 66 % 1009,3 hPa 0,0 l/m 0 min 0 min 0 W/m 6,8 km/h (2 Bft) 97,62 %
25.08.2018 00:18 15,7 C 15,0 C 15,0 C 66 % 1009,2 hPa 0,0 l/m 0 min 0 min 0 W/m 4,5 km/h (1 Bft) 93,75 %
25.08.2018 00:20 15,6 C 15,0 C 15,0 C 66 % 1009,2 hPa 0,0 l/m 0 min 0 min 0 W/m 4,5 km/h (1 Bft) 94,92 %
25.08.2018 00:22 15,7 C 15,0 C 15,0 C 66 % 1009,3 hPa 0,0 l/m 0 min 0 min 0 W/m 6,8 km/h (2 Bft) 97,14 %
25.08.2018 00:24 15,6 C 15,0 C 15,0 C 66 % 1009,2 hPa 0,0 l/m 0 min 0 min 0 W/m 6,8 km/h (2 Bft) 93,75 %
25.08.2018 00:26 15,6 C 15,0 C 15,0 C 66 % 1009,3 hPa 0,0 l/m 0 min 0 min 0 W/m 6,8 km/h (2 Bft) 95,74 %
25.08.2018 00:28 15,6 C 15,0 C 15,0 C 66 % 1009,3 hPa 0,0 l/m 0 min 0 min 0 W/m 4,5 km/h (1 Bft) 95,83 %
25.08.2018 00:30 15,6 C 15,0 C 15,0 C 66 % 1009,3 hPa 0,0 l/m 0 min 0 min 0 W/m 4,5 km/h (1 Bft) 95,83 %
25.08.2018 00:32 15,6 C 15,0 C 15,0 C 66 % 1009,4 hPa 0,0 l/m 0 min 0 min 0 W/m 4,5 km/h (1 Bft) 93,62 %
25.08.2018 00:34 15,6 C 15,0 C 15,0 C 66 % 1009,4 hPa 0,0 l/m 0 min 0 min 0 W/m 6,8 km/h (2 Bft) 95,74 %
25.08.2018 00:36 15,6 C 15,0 C 15,0 C 66 % 1009,4 hPa 0,0 l/m 0 min 0 min 0 W/m 4,5 km/h (1 Bft) 95,74 %
25.08.2018 00:38 15,6 C 15,0 C 15,0 C 66 % 1009,4 hPa 0,0 l/m 0 min 0 min 0 W/m 6,8 km/h (2 Bft) 95,74 %
25.08.2018 00:40 15,6 C 15,0 C 15,0 C 66 % 1009,4 hPa 0,0 l/m 0 min 0 min 0 W/m 6,8 km/h (2 Bft) 95,74 %
25.08.2018 00:42 15,6 C 15,0 C 15,0 C 66 % 1009,4 hPa 0,0 l/m 0 min 0 min 0 W/m 6,8 km/h (2 Bft) 95,74 %
25.08.2018 00:44 15,6 C 15,0 C 15,0 C 66 % 1009,3 hPa 0,0 l/m 0 min 0 min 0 W/m 4,5 km/h (1 Bft) 97,62 %
25.08.2018 00:46 15,6 C 15,0 C 15,0 C 66 % 1009,3 hPa 0,0 l/m 0 min 0 min 0 W/m 9,0 km/h (2 Bft) 97,87 %
25.08.2018 00:48 15,6 C 15,0 C 15,0 C 65 % 1009,4 hPa 0,0 l/m 0 min 0 min 0 W/m 6,8 km/h (2 Bft) 93,75 %
25.08.2018 00:50 15,6 C 15,0 C 15,0 C 65 % 1009,4 hPa 0,0 l/m 0 min 0 min 0 W/m 9,0 km/h (2 Bft) 97,92 %
25.08.2018 00:52 15,6 C 15,0 C 15,0 C 66 % 1009,3 hPa 0,0 l/m 0 min 0 min 0 W/m 6,8 km/h (2 Bft) 93,75 %
25.08.2018 00:54 15,6 C 15,0 C 15,0 C 66 % 1009,3 hPa 0,0 l/m 0 min 0 min 0 W/m 2,3 km/h (1 Bft) 97,87 %
25.08.2018 00:56 15,6 C 15,0 C 15,0 C 66 % 1009,3 hPa 0,0 l/m 0 min 0 min 0 W/m 4,5 km/h (1 Bft) 97,87 %
25.08.2018 00:58 15,6 C 15,0 C 15,0 C 66 % 1009,3 hPa 0,0 l/m 0 min 0 min 0 W/m 4,5 km/h (1 Bft) 100,00 %
25.08.2018 01:00 15,6 C 15,0 C 15,0 C 66 % 1009,2 hPa 0,0 l/m 0 min 0 min 0 W/m 4,5 km/h (1 Bft) 100,00 %
25.08.2018 01:02 15,6 C 15,0 C 15,0 C 66 % 1009,2 hPa 0,0 l/m 0 min 0 min 0 W/m 6,8 km/h (2 Bft) 100,00 %
25.08.2018 01:04 15,6 C 15,0 C 15,0 C 65 % 1009,3 hPa 0,0 l/m 0 min 0 min 0 W/m 6,8 km/h (2 Bft) 100,00 %
25.08.2018 01:06 15,6 C 15,0 C 15,0 C 66 % 1009,1 hPa 0,0 l/m 0 min 0 min 0 W/m 6,8 km/h (2 Bft) 100,00 %
25.08.2018 01:08 15,6 C 15,0 C 15,0 C 66 % 1009,2 hPa 0,0 l/m 0 min 0 min 0 W/m 4,5 km/h (1 Bft) 100,00 %
25.08.2018 01:10 15,6 C 15,0 C 15,0 C 66 % 1009,1 hPa 0,0 l/m 0 min 0 min 0 W/m 4,5 km/h (1 Bft) 100,00 %
25.08.2018 01:12 15,6 C 15,0 C 15,0 C 66 % 1009,1 hPa 0,0 l/m 0 min 0 min 0 W/m 6,8 km/h (2 Bft) 97,92 %
25.08.2018 01:14 15,6 C 15,0 C 15,0 C 66 % 1009,1 hPa 0,0 l/m 0 min 0 min 0 W/m 9,0 km/h (2 Bft) 97,92 %
25.08.2018 01:16 15,6 C 15,0 C 15,0 C 66 % 1009,1 hPa 0,0 l/m 0 min 0 min 0 W/m 9,0 km/h (2 Bft) 97,87 %
25.08.2018 01:18 15,6 C 15,0 C 15,0 C 66 % 1009,1 hPa 0,0 l/m 0 min 0 min 0 W/m 11,3 km/h (2 Bft) 97,87 %
25.08.2018 01:20 15,6 C 15,0 C 15,0 C 66 % 1008,9 hPa 0,0 l/m 0 min 0 min 0 W/m 9,0 km/h (2 Bft) 97,92 %
25.08.2018 01:22 15,6 C 15,0 C 15,0 C 66 % 1008,9 hPa 0,0 l/m 0 min 0 min 0 W/m 4,5 km/h (1 Bft) 97,92 %
25.08.2018 01:24 15,6 C 15,0 C 15,0 C 66 % 1008,9 hPa 0,0 l/m 0 min 0 min 0 W/m 4,5 km/h (1 Bft) 97,92 %
25.08.2018 01:26 15,6 C 15,0 C 15,0 C 66 % 1008,9 hPa 0,0 l/m 0 min 0 min 0 W/m 9,0 km/h (2 Bft) 97,92 %
25.08.2018 01:28 15,6 C 15,0 C 15,0 C 66 % 1008,9 hPa 0,0 l/m 0 min 0 min 0 W/m 4,5 km/h (1 Bft) 97,92 %
25.08.2018 01:30 15,6 C 15,0 C 15,0 C 66 % 1008,9 hPa 0,0 l/m 0 min 0 min 0 W/m 6,8 km/h (2 Bft) 97,87 %
25.08.2018 01:32 15,6 C 15,0 C 15,0 C 66 % 1008,9 hPa 0,0 l/m 0 min 0 min 0 W/m 6,8 km/h (2 Bft) 97,87 %
25.08.2018 01:34 15,6 C 15,0 C 15,0 C 66 % 1008,8 hPa 0,0 l/m 0 min 0 min 0 W/m 6,8 km/h (2 Bft) 97,87 %
25.08.2018 01:36 15,6 C 15,0 C 15,0 C 66 % 1008,7 hPa 0,0 l/m 0 min 0 min 0 W/m 6,8 km/h (2 Bft) 97,87 %
25.08.2018 01:38 15,6 C 15,0 C 15,0 C 66 % 1008,6 hPa 0,0 l/m 0 min 0 min 0 W/m 4,5 km/h (1 Bft) 97,92 %
25.08.2018 01:40 15,6 C 14,4 C 15,0 C 66 % 1008,6 hPa 0,0 l/m 0 min 0 min 0 W/m 6,8 km/h (2 Bft) 97,83 %
25.08.2018 01:42 15,6 C 14,4 C 15,0 C 66 % 1008,6 hPa 0,0 l/m 0 min 0 min 0 W/m 4,5 km/h (1 Bft) 97,92 %
25.08.2018 01:44 15,6 C 14,4 C 15,0 C 66 % 1008,6 hPa 0,0 l/m 0 min 0 min 0 W/m 4,5 km/h (1 Bft) 95,83 %
25.08.2018 01:46 15,5 C 14,4 C 15,0 C 67 % 1008,6 hPa 0,0 l/m 0 min 0 min 0 W/m 9,0 km/h (2 Bft) 100,00 %
25.08.2018 01:48 15,5 C 14,4 C 15,0 C 67 % 1008,5 hPa 0,0 l/m 0 min 0 min 0 W/m 6,8 km/h (2 Bft) 95,83 %
25.08.2018 01:50 15,5 C 14,4 C 15,0 C 67 % 1008,5 hPa 0,0 l/m 0 min 0 min 0 W/m 6,8 km/h (2 Bft) 96,67 %
25.08.2018 01:52 15,5 C 14,4 C 15,0 C 67 % 1008,5 hPa 0,0 l/m 0 min 0 min 0 W/m 4,5 km/h (1 Bft) 97,22 %
25.08.2018 01:54 15,5 C 14,4 C 15,0 C 67 % 1008,5 hPa 0,0 l/m 0 min 0 min 0 W/m 9,0 km/h (2 Bft) 93,62 %
25.08.2018 01:56 15,5 C 14,4 C 15,0 C 67 % 1008,4 hPa 0,0 l/m 0 min 0 min 0 W/m 6,8 km/h (2 Bft) 97,87 %
25.08.2018 01:58 15,4 C 14,4 C 15,0 C 67 % 1008,5 hPa 0,0 l/m 0 min 0 min 0 W/m 6,8 km/h (2 Bft) 97,87 %
25.08.2018 02:00 15,4 C 14,4 C 15,0 C 67 % 1008,4 hPa 0,0 l/m 0 min 0 min 0 W/m 6,8 km/h (2 Bft) 97,87 %
25.08.2018 02:02 15,4 C 14,4 C 15,0 C 67 % 1008,4 hPa 0,0 l/m 0 min 0 min 0 W/m 6,8 km/h (2 Bft) 97,87 %
25.08.2018 02:04 15,4 C 14,4 C 15,0 C 67 % 1008,3 hPa 0,0 l/m 0 min 0 min 0 W/m 9,0 km/h (2 Bft) 97,96 %
25.08.2018 02:06 15,4 C 14,4 C 15,0 C 67 % 1008,3 hPa 0,0 l/m 0 min 0 min 0 W/m 6,8 km/h (2 Bft) 97,83 %
25.08.2018 02:08 15,4 C 14,4 C 15,0 C 67 % 1008,3 hPa 0,0 l/m 0 min 0 min 0 W/m 9,0 km/h (2 Bft) 97,87 %
25.08.2018 02:10 15,4 C 14,4 C 15,0 C 67 % 1008,3 hPa 0,0 l/m 0 min 0 min 0 W/m 6,8 km/h (2 Bft) 95,74 %
25.08.2018 02:12 15,4 C 14,4 C 15,0 C 67 % 1008,3 hPa 0,0 l/m 0 min 0 min 0 W/m 6,8 km/h (2 Bft) 97,87 %
25.08.2018 02:14 15,4 C 14,4 C 15,0 C 67 % 1008,2 hPa 0,0 l/m 0 min 0 min 0 W/m 6,8 km/h (2 Bft) 97,87 %
25.08.2018 02:16 15,4 C 14,4 C 15,0 C 68 % 1008,2 hPa 0,0 l/m 0 min 0 min 0 W/m 6,8 km/h (2 Bft) 97,62 %
25.08.2018 02:18 15,4 C 14,4 C 15,0 C 68 % 1008,1 hPa 0,0 l/m 0 min 0 min 0 W/m 6,8 km/h (2 Bft) 100,00 %
25.08.2018 02:20 15,3 C 14,4 C 15,0 C 68 % 1008,0 hPa 0,0 l/m 0 min 0 min 0 W/m 6,8 km/h (2 Bft) 100,00 %
25.08.2018 02:22 15,3 C 14,4 C 15,0 C 68 % 1008,0 hPa 0,0 l/m 0 min 0 min 0 W/m 6,8 km/h (2 Bft) 100,00 %
25.08.2018 02:24 15,3 C 14,4 C 15,0 C 67 % 1008,0 hPa 0,0 l/m 0 min 0 min 0 W/m 6,8 km/h (2 Bft) 97,92 %
25.08.2018 02:26 15,3 C 14,4 C 15,0 C 68 % 1008,1 hPa 0,0 l/m 0 min 0 min 0 W/m 4,5 km/h (1 Bft) 100,00 %
25.08.2018 02:28 15,3 C 14,4 C 15,0 C 67 % 1008,1 hPa 0,0 l/m 0 min 0 min 0 W/m 6,8 km/h (2 Bft) 97,92 %
25.08.2018 02:30 15,3 C 14,4 C 15,0 C 67 % 1008,1 hPa 0,0 l/m 0 min 0 min 0 W/m 6,8 km/h (2 Bft) 100,00 %
25.08.2018 02:32 15,3 C 14,4 C 15,0 C 68 % 1007,9 hPa 0,0 l/m 0 min 0 min 0 W/m 6,8 km/h (2 Bft) 100,00 %
25.08.2018 02:34 15,3 C 14,4 C 15,0 C 68 % 1008,0 hPa 0,0 l/m 0 min 0 min 0 W/m 4,5 km/h (1 Bft) 97,87 %
25.08.2018 02:36 15,3 C 14,4 C 15,0 C 68 % 1008,0 hPa 0,0 l/m 0 min 0 min 0 W/m 11,3 km/h (2 Bft) 100,00 %
25.08.2018 02:38 15,3 C 14,4 C 15,0 C 67 % 1007,9 hPa 0,0 l/m 0 min 0 min 0 W/m 13,5 km/h (3 Bft) 100,00 %
25.08.2018 02:40 15,3 C 14,4 C 15,0 C 68 % 1007,9 hPa 0,0 l/m 0 min 0 min 0 W/m 6,8 km/h (2 Bft) 100,00 %
25.08.2018 02:42 15,3 C 14,4 C 15,0 C 68 % 1007,9 hPa 0,0 l/m 0 min 0 min 0 W/m 9,0 km/h (2 Bft) 97,87 %
25.08.2018 02:44 15,2 C 14,4 C 15,0 C 68 % 1007,8 hPa 0,0 l/m 0 min 0 min 0 W/m 6,8 km/h (2 Bft) 97,92 %
25.08.2018 02:46 15,2 C 14,4 C 14,4 C 68 % 1007,9 hPa 0,0 l/m 0 min 0 min 0 W/m 9,0 km/h (2 Bft) 97,87 %
25.08.2018 02:48 15,2 C 14,4 C 14,4 C 68 % 1007,9 hPa 0,0 l/m 0 min 0 min 0 W/m 6,8 km/h (2 Bft) 95,83 %
25.08.2018 02:50 15,2 C 14,4 C 14,4 C 68 % 1007,8 hPa 0,0 l/m 0 min 0 min 0 W/m 6,8 km/h (2 Bft) 95,74 %
25.08.2018 02:52 15,2 C 14,4 C 14,4 C 68 % 1007,8 hPa 0,0 l/m 0 min 0 min 0 W/m 6,8 km/h (2 Bft) 95,83 %
25.08.2018 02:54 15,2 C 14,4 C 14,4 C 68 % 1007,8 hPa 0,0 l/m 0 min 0 min 0 W/m 4,5 km/h (1 Bft) 97,22 %
25.08.2018 02:56 15,2 C 14,4 C 14,4 C 68 % 1007,8 hPa 0,0 l/m 0 min 0 min 0 W/m 9,0 km/h (2 Bft) 97,92 %
25.08.2018 02:58 15,2 C 14,4 C 14,4 C 68 % 1007,8 hPa 0,0 l/m 0 min 0 min 0 W/m 6,8 km/h (2 Bft) 97,87 %
25.08.2018 03:00 15,2 C 14,4 C 14,4 C 69 % 1007,7 hPa 0,0 l/m 0 min 0 min 0 W/m 4,5 km/h (1 Bft) 93,62 %
25.08.2018 03:02 15,2 C 14,4 C 14,4 C 69 % 1007,7 hPa 0,0 l/m 0 min 0 min 0 W/m 6,8 km/h (2 Bft) 93,88 %
25.08.2018 03:04 15,2 C 14,4 C 14,4 C 69 % 1007,6 hPa 0,0 l/m 0 min 0 min 0 W/m 6,8 km/h (2 Bft) 95,65 %
25.08.2018 03:06 15,2 C 14,4 C 14,4 C 69 % 1007,6 hPa 0,0 l/m 0 min 0 min 0 W/m 6,8 km/h (2 Bft) 95,74 %
25.08.2018 03:08 15,1 C 14,4 C 14,4 C 69 % 1007,6 hPa 0,0 l/m 0 min 0 min 0 W/m 4,5 km/h (1 Bft) 95,24 %
25.08.2018 03:10 15,1 C 14,4 C 14,4 C 69 % 1007,6 hPa 0,0 l/m 0 min 0 min 0 W/m 11,3 km/h (2 Bft) 93,75 %
25.08.2018 03:12 15,1 C 14,4 C 14,4 C 69 % 1007,5 hPa 0,0 l/m 0 min 0 min 0 W/m 9,0 km/h (2 Bft) 95,74 %
25.08.2018 03:14 15,1 C 14,4 C 14,4 C 69 % 1007,6 hPa 0,0 l/m 0 min 0 min 0 W/m 9,0 km/h (2 Bft) 93,75 %
25.08.2018 03:16 15,1 C 14,4 C 14,4 C 69 % 1007,5 hPa 0,0 l/m 0 min 0 min 0 W/m 6,8 km/h (2 Bft) 95,74 %
25.08.2018 03:18 15,1 C 14,4 C 14,4 C 69 % 1007,3 hPa 0,0 l/m 0 min 0 min 0 W/m 9,0 km/h (2 Bft) 93,75 %
25.08.2018 03:20 15,1 C 14,4 C 14,4 C 69 % 1007,3 hPa 0,0 l/m 0 min 0 min 0 W/m 6,8 km/h (2 Bft) 95,83 %
25.08.2018 03:22 15,0 C 14,4 C 14,4 C 69 % 1007,3 hPa 0,0 l/m 0 min 0 min 0 W/m 6,8 km/h (2 Bft) 91,67 %
25.08.2018 03:24 15,0 C 14,4 C 14,4 C 69 % 1007,3 hPa 0,0 l/m 0 min 0 min 0 W/m 4,5 km/h (1 Bft) 95,83 %
25.08.2018 03:26 15,0 C 14,4 C 14,4 C 69 % 1007,3 hPa 0,0 l/m 0 min 0 min 0 W/m 13,5 km/h (3 Bft) 95,74 %
25.08.2018 03:28 15,0 C 14,4 C 14,4 C 69 % 1007,2 hPa 0,0 l/m 0 min 0 min 0 W/m 11,3 km/h (2 Bft) 93,75 %
25.08.2018 03:30 15,0 C 14,4 C 14,4 C 69 % 1007,1 hPa 0,0 l/m 0 min 0 min 0 W/m 6,8 km/h (2 Bft) 95,83 %
25.08.2018 03:32 15,0 C 14,4 C 14,4 C 69 % 1007,1 hPa 0,0 l/m 0 min 0 min 0 W/m 6,8 km/h (2 Bft) 95,83 %
25.08.2018 03:34 14,9 C 14,4 C 14,4 C 69 % 1007,0 hPa 0,0 l/m 0 min 0 min 0 W/m 2,3 km/h (1 Bft) 97,92 %
25.08.2018 03:36 14,9 C 14,4 C 14,4 C 69 % 1007,0 hPa 0,0 l/m 0 min 0 min 0 W/m 6,8 km/h (2 Bft) 97,30 %
25.08.2018 03:38 14,9 C 14,4 C 14,4 C 69 % 1007,0 hPa 0,0 l/m 0 min 0 min 0 W/m 4,5 km/h (1 Bft) 97,92 %
25.08.2018 03:40 14,9 C 14,4 C 14,4 C 70 % 1006,9 hPa 0,0 l/m 0 min 0 min 0 W/m 6,8 km/h (2 Bft) 97,87 %
25.08.2018 03:42 14,9 C 14,4 C 14,4 C 70 % 1006,9 hPa 0,0 l/m 0 min 0 min 0 W/m 9,0 km/h (2 Bft) 93,75 %
25.08.2018 03:44 14,9 C 14,4 C 14,4 C 70 % 1006,9 hPa 0,0 l/m 0 min 0 min 0 W/m 6,8 km/h (2 Bft) 93,62 %
25.08.2018 03:46 14,9 C 14,4 C 14,4 C 70 % 1006,9 hPa 0,0 l/m 0 min 0 min 0 W/m 4,5 km/h (1 Bft) 97,87 %
25.08.2018 03:48 14,9 C 14,4 C 14,4 C 70 % 1006,9 hPa 0,0 l/m 0 min 0 min 0 W/m 9,0 km/h (2 Bft) 97,87 %
25.08.2018 03:50 14,9 C 14,4 C 14,4 C 70 % 1006,8 hPa 0,0 l/m 0 min 0 min 0 W/m 4,5 km/h (1 Bft) 97,83 %
25.08.2018 03:52 14,9 C 14,4 C 14,4 C 70 % 1006,9 hPa 0,0 l/m 0 min 0 min 0 W/m 6,8 km/h (2 Bft) 95,74 %
25.08.2018 03:54 14,9 C 14,4 C 14,4 C 70 % 1006,9 hPa 0,0 l/m 0 min 0 min 0 W/m 6,8 km/h (2 Bft) 100,00 %
25.08.2018 03:56 14,9 C 14,4 C 14,4 C 70 % 1006,8 hPa 0,0 l/m 0 min 0 min 0 W/m 6,8 km/h (2 Bft) 97,92 %
25.08.2018 03:58 14,9 C 14,4 C 14,4 C 70 % 1006,8 hPa 0,0 l/m 0 min 2 min 0 W/m 4,5 km/h (1 Bft) 100,00 %
25.08.2018 04:00 15,0 C 14,4 C 14,4 C 71 % 1006,8 hPa 0,0 l/m 0 min 2 min 0 W/m 4,5 km/h (1 Bft) 100,00 %
25.08.2018 04:02 15,0 C 13,9 C 14,4 C 71 % 1006,8 hPa 0,0 l/m 0 min 0 min 0 W/m 6,8 km/h (2 Bft) 100,00 %
25.08.2018 04:04 15,0 C 13,9 C 13,9 C 72 % 1006,8 hPa 0,0 l/m 0 min 0 min 0 W/m 9,0 km/h (2 Bft) 98,08 %
25.08.2018 04:06 15,0 C 13,9 C 13,9 C 72 % 1006,8 hPa 0,0 l/m 0 min 0 min 0 W/m 6,8 km/h (2 Bft) 100,00 %
25.08.2018 04:08 15,0 C 12,8 C 13,9 C 73 % 1006,8 hPa 0,0 l/m 0 min 0 min 0 W/m 6,8 km/h (2 Bft) 97,96 %
25.08.2018 04:10 15,0 C 12,8 C 12,8 C 74 % 1006,9 hPa 0,0 l/m 0 min 2 min 0 W/m 6,8 km/h (2 Bft) 100,00 %
25.08.2018 04:12 14,9 C 12,2 C 12,8 C 74 % 1006,9 hPa 0,0 l/m 0 min 2 min 0 W/m 4,5 km/h (1 Bft) 100,00 %
25.08.2018 04:14 14,9 C 12,2 C 12,2 C 75 % 1006,8 hPa 0,0 l/m 0 min 2 min 0 W/m 6,8 km/h (2 Bft) 100,00 %
25.08.2018 04:16 14,9 C 11,7 C 12,2 C 76 % 1006,9 hPa 0,0 l/m 0 min 2 min 0 W/m 9,0 km/h (2 Bft) 100,00 %
25.08.2018 04:18 14,9 C 11,7 C 12,2 C 76 % 1006,9 hPa 0,0 l/m 0 min 2 min 0 W/m 6,8 km/h (2 Bft) 100,00 %
25.08.2018 04:20 14,8 C 11,7 C 12,2 C 77 % 1006,8 hPa 0,0 l/m 0 min 2 min 0 W/m 4,5 km/h (1 Bft) 100,00 %
25.08.2018 04:22 14,8 C 11,7 C 12,2 C 77 % 1006,8 hPa 0,0 l/m 0 min 2 min 0 W/m 6,8 km/h (2 Bft) 100,00 %
25.08.2018 04:24 14,7 C 11,7 C 12,2 C 78 % 1006,8 hPa 0,0 l/m 0 min 2 min 0 W/m 4,5 km/h (1 Bft) 100,00 %
25.08.2018 04:26 14,7 C 11,7 C 12,2 C 78 % 1006,8 hPa 0,2 l/m 0 min 2 min 0 W/m 6,8 km/h (2 Bft) 100,00 %
25.08.2018 04:28 14,6 C 11,7 C 12,2 C 78 % 1006,8 hPa 0,0 l/m 0 min 2 min 0 W/m 4,5 km/h (1 Bft) 100,00 %
25.08.2018 04:30 14,6 C 11,7 C 12,2 C 79 % 1006,9 hPa 0,0 l/m 0 min 2 min 0 W/m 4,5 km/h (1 Bft) 100,00 %
25.08.2018 04:32 14,5 C 11,7 C 12,2 C 80 % 1006,8 hPa 0,0 l/m 0 min 2 min 0 W/m 2,3 km/h (1 Bft) 100,00 %
25.08.2018 04:34 14,5 C 11,7 C 12,2 C 80 % 1006,8 hPa 0,0 l/m 0 min 2 min 0 W/m 2,3 km/h (1 Bft) 100,00 %
25.08.2018 04:36 14,4 C 11,7 C 12,2 C 81 % 1006,8 hPa 0,0 l/m 0 min 2 min 0 W/m 2,3 km/h (1 Bft) 100,00 %
25.08.2018 04:38 14,4 C 11,7 C 12,2 C 81 % 1006,8 hPa 0,0 l/m 0 min 0 min 0 W/m 2,3 km/h (1 Bft) 100,00 %
25.08.2018 04:40 14,4 C 11,7 C 12,2 C 82 % 1006,8 hPa 0,0 l/m 0 min 2 min 0 W/m 2,3 km/h (1 Bft) 100,00 %
25.08.2018 04:42 14,3 C 11,7 C 12,2 C 82 % 1006,8 hPa 0,0 l/m 0 min 0 min 0 W/m 4,5 km/h (1 Bft) 100,00 %
25.08.2018 04:44 14,3 C 11,1 C 12,2 C 82 % 1006,8 hPa 0,0 l/m 0 min 2 min 0 W/m 4,5 km/h (1 Bft) 100,00 %
25.08.2018 04:46 14,2 C 11,7 C 12,2 C 83 % 1006,8 hPa 0,0 l/m 0 min 2 min 0 W/m 4,5 km/h (1 Bft) 100,00 %
25.08.2018 04:48 14,2 C 11,1 C 12,2 C 83 % 1006,7 hPa 0,0 l/m 0 min 2 min 0 W/m 4,5 km/h (1 Bft) 100,00 %
25.08.2018 04:50 14,2 C 11,1 C 12,2 C 83 % 1006,8 hPa 0,0 l/m 0 min 0 min 0 W/m 4,5 km/h (1 Bft) 97,87 %
25.08.2018 04:52 14,2 C 11,7 C 12,2 C 84 % 1006,8 hPa 0,0 l/m 0 min 2 min 0 W/m 6,8 km/h (2 Bft) 100,00 %
25.08.2018 04:54 14,1 C 11,1 C 12,2 C 84 % 1006,8 hPa 0,0 l/m 0 min 2 min 0 W/m 2,3 km/h (1 Bft) 100,00 %
25.08.2018 04:56 14,0 C 11,1 C 12,2 C 84 % 1006,8 hPa 0,0 l/m 0 min 2 min 0 W/m 4,5 km/h (1 Bft) 100,00 %
25.08.2018 04:58 13,9 C 11,1 C 12,2 C 85 % 1006,7 hPa 0,0 l/m 0 min 2 min 0 W/m 4,5 km/h (1 Bft) 100,00 %
25.08.2018 05:00 13,9 C 11,1 C 12,2 C 85 % 1006,7 hPa 0,0 l/m 0 min 2 min 0 W/m 4,5 km/h (1 Bft) 100,00 %
25.08.2018 05:02 13,8 C 11,1 C 12,2 C 85 % 1006,7 hPa 0,0 l/m 0 min 2 min 0 W/m 6,8 km/h (2 Bft) 100,00 %
25.08.2018 05:04 13,8 C 11,1 C 11,7 C 86 % 1006,7 hPa 0,0 l/m 0 min 2 min 0 W/m 4,5 km/h (1 Bft) 100,00 %
25.08.2018 05:06 13,8 C 11,7 C 11,7 C 86 % 1006,7 hPa 0,2 l/m 0 min 2 min 0 W/m 2,3 km/h (1 Bft) 100,00 %
25.08.2018 05:08 13,7 C 11,7 C 11,7 C 86 % 1006,7 hPa 0,0 l/m 0 min 2 min 0 W/m 2,3 km/h (1 Bft) 100,00 %
25.08.2018 05:10 13,7 C 11,1 C 11,7 C 86 % 1006,7 hPa 0,2 l/m 0 min 2 min 0 W/m 4,5 km/h (1 Bft) 100,00 %
25.08.2018 05:12 13,7 C 11,1 C 11,7 C 87 % 1006,6 hPa 0,0 l/m 0 min 2 min 0 W/m 4,5 km/h (1 Bft) 97,87 %
25.08.2018 05:14 13,6 C 11,1 C 11,7 C 87 % 1006,5 hPa 0,0 l/m 0 min 2 min 0 W/m 2,3 km/h (1 Bft) 93,75 %
25.08.2018 05:16 13,6 C 11,1 C 11,7 C 87 % 1006,5 hPa 0,0 l/m 0 min 2 min 0 W/m 4,5 km/h (1 Bft) 97,92 %
25.08.2018 05:18 13,6 C 11,1 C 11,7 C 88 % 1006,5 hPa 0,0 l/m 0 min 2 min 0 W/m 4,5 km/h (1 Bft) 97,92 %
25.08.2018 05:20 13,5 C 11,1 C 11,7 C 88 % 1006,5 hPa 0,0 l/m 0 min 2 min 0 W/m 2,3 km/h (1 Bft) 97,92 %
25.08.2018 05:22 13,5 C 11,1 C 11,7 C 88 % 1006,4 hPa 0,0 l/m 0 min 2 min 0 W/m 2,3 km/h (1 Bft) 97,87 %
25.08.2018 05:24 13,4 C 11,1 C 11,7 C 88 % 1006,4 hPa 0,0 l/m 0 min 2 min 0 W/m 4,5 km/h (1 Bft) 97,30 %
25.08.2018 05:26 13,4 C 11,1 C 11,7 C 88 % 1006,4 hPa 0,0 l/m 0 min 0 min 0 W/m 2,3 km/h (1 Bft) 97,87 %
25.08.2018 05:28 13,3 C 11,1 C 11,7 C 89 % 1006,4 hPa 0,0 l/m 0 min 2 min 0 W/m 4,5 km/h (1 Bft) 98,31 %
25.08.2018 05:30 13,3 C 11,1 C 11,7 C 89 % 1006,4 hPa 0,0 l/m 0 min 0 min 0 W/m 4,5 km/h (1 Bft) 97,87 %
25.08.2018 05:32 13,3 C 11,1 C 11,7 C 89 % 1006,4 hPa 0,0 l/m 0 min 0 min 0 W/m 6,8 km/h (2 Bft) 97,83 %
25.08.2018 05:34 13,3 C 11,1 C 11,7 C 89 % 1006,4 hPa 0,0 l/m 0 min 0 min 0 W/m 6,8 km/h (2 Bft) 94,44 %
25.08.2018 05:36 13,2 C 11,1 C 11,7 C 89 % 1006,4 hPa 0,0 l/m 0 min 0 min 0 W/m 4,5 km/h (1 Bft) 95,74 %
25.08.2018 05:38 13,2 C 11,1 C 11,7 C 89 % 1006,4 hPa 0,0 l/m 0 min 0 min 0 W/m 4,5 km/h (1 Bft) 95,83 %
25.08.2018 05:40 13,1 C 11,1 C 11,7 C 89 % 1006,3 hPa 0,0 l/m 0 min 0 min 0 W/m 4,5 km/h (1 Bft) 97,87 %
25.08.2018 05:42 13,1 C 11,1 C 11,7 C 90 % 1006,4 hPa 0,0 l/m 0 min 0 min 0 W/m 6,8 km/h (2 Bft) 93,02 %
25.08.2018 05:44 13,1 C 11,1 C 11,7 C 90 % 1006,3 hPa 0,0 l/m 0 min 0 min 0 W/m 6,8 km/h (2 Bft) 97,87 %
25.08.2018 05:46 13,0 C 11,1 C 11,7 C 90 % 1006,4 hPa 0,0 l/m 0 min 0 min 0 W/m 4,5 km/h (1 Bft) 93,88 %
25.08.2018 05:48 13,0 C 11,1 C 11,7 C 90 % 1006,3 hPa 0,0 l/m 0 min 0 min 0 W/m 4,5 km/h (1 Bft) 93,48 %
25.08.2018 05:50 12,9 C 11,1 C 11,7 C 90 % 1006,3 hPa 0,0 l/m 0 min 0 min 0 W/m 9,0 km/h (2 Bft) 93,62 %
25.08.2018 05:52 12,9 C 11,1 C 11,7 C 90 % 1006,3 hPa 0,0 l/m 0 min 2 min 0 W/m 4,5 km/h (1 Bft) 91,84 %
25.08.2018 05:54 12,9 C 11,1 C 11,7 C 90 % 1006,3 hPa 0,0 l/m 0 min 2 min 0 W/m 4,5 km/h (1 Bft) 93,62 %
25.08.2018 05:56 12,8 C 11,1 C 11,7 C 90 % 1006,3 hPa 0,0 l/m 0 min 2 min 0 W/m 2,3 km/h (1 Bft) 93,62 %
25.08.2018 05:58 12,8 C 11,1 C 11,7 C 90 % 1006,3 hPa 0,0 l/m 0 min 2 min 0 W/m 2,3 km/h (1 Bft) 93,62 %
25.08.2018 06:00 12,8 C 11,1 C 11,7 C 91 % 1006,3 hPa 0,2 l/m 0 min 2 min 0 W/m 2,3 km/h (1 Bft) 93,48 %
25.08.2018 06:02 12,8 C 11,1 C 11,7 C 91 % 1006,3 hPa 0,0 l/m 0 min 2 min 0 W/m 2,3 km/h (1 Bft) 92,68 %
25.08.2018 06:04 12,8 C 11,1 C 11,1 C 91 % 1006,3 hPa 0,0 l/m 0 min 2 min 0 W/m 2,3 km/h (1 Bft) 94,00 %
25.08.2018 06:06 12,8 C 11,1 C 11,1 C 91 % 1006,3 hPa 0,2 l/m 0 min 2 min 0 W/m 6,8 km/h (2 Bft) 93,75 %
25.08.2018 06:08 12,8 C 11,1 C 11,1 C 91 % 1006,4 hPa 0,0 l/m 0 min 2 min 0 W/m 4,5 km/h (1 Bft) 93,62 %
25.08.2018 06:10 12,7 C 11,1 C 11,1 C 91 % 1006,3 hPa 0,2 l/m 0 min 2 min 0 W/m 6,8 km/h (2 Bft) 89,36 %
25.08.2018 06:12 12,7 C 11,1 C 11,7 C 91 % 1006,3 hPa 0,0 l/m 0 min 2 min 0 W/m 4,5 km/h (1 Bft) 91,67 %
25.08.2018 06:14 12,7 C 11,1 C 11,1 C 91 % 1006,3 hPa 0,0 l/m 0 min 2 min 0 W/m 11,3 km/h (2 Bft) 93,75 %
25.08.2018 06:16 12,7 C 11,1 C 11,1 C 92 % 1006,3 hPa 0,0 l/m 0 min 2 min 0 W/m 9,0 km/h (2 Bft) 91,67 %
25.08.2018 06:18 12,7 C 11,1 C 11,1 C 92 % 1006,3 hPa 0,0 l/m 0 min 2 min 0 W/m 4,5 km/h (1 Bft) 93,75 %
25.08.2018 06:20 12,6 C 11,1 C 11,1 C 92 % 1006,4 hPa 0,0 l/m 0 min 2 min 0 W/m 4,5 km/h (1 Bft) 93,88 %
25.08.2018 06:22 12,6 C 11,1 C 11,7 C 92 % 1006,4 hPa 0,0 l/m 0 min 2 min 0 W/m 4,5 km/h (1 Bft) 93,48 %
25.08.2018 06:24 12,6 C 11,1 C 11,7 C 92 % 1006,3 hPa 0,0 l/m 0 min 0 min 0 W/m 2,3 km/h (1 Bft) 93,75 %
25.08.2018 06:26 12,6 C 11,1 C 11,1 C 92 % 1006,3 hPa 0,0 l/m 0 min 0 min 0 W/m 6,8 km/h (2 Bft) 91,67 %
25.08.2018 06:28 12,6 C 11,1 C 11,1 C 92 % 1006,4 hPa 0,0 l/m 0 min 2 min 0 W/m 11,3 km/h (2 Bft) 94,29 %
25.08.2018 06:30 12,5 C 11,1 C 11,1 C 92 % 1006,4 hPa 0,0 l/m 0 min 0 min 0 W/m 9,0 km/h (2 Bft) 91,49 %
25.08.2018 06:32 12,5 C 11,1 C 11,1 C 92 % 1006,5 hPa 0,0 l/m 0 min 0 min 0 W/m 9,0 km/h (2 Bft) 95,92 %
25.08.2018 06:34 12,4 C 11,1 C 11,1 C 92 % 1006,5 hPa 0,0 l/m 0 min 0 min 0 W/m 6,8 km/h (2 Bft) 98,31 %
25.08.2018 06:36 12,4 C 11,1 C 11,1 C 93 % 1006,5 hPa 0,0 l/m 0 min 0 min 0 W/m 6,8 km/h (2 Bft) 95,74 %
25.08.2018 06:38 12,4 C 11,1 C 11,1 C 93 % 1006,5 hPa 0,0 l/m 0 min 0 min 0 W/m 4,5 km/h (1 Bft) 97,14 %
25.08.2018 06:40 12,4 C 11,1 C 11,1 C 93 % 1006,5 hPa 0,0 l/m 0 min 0 min 0 W/m 11,3 km/h (2 Bft) 100,00 %
25.08.2018 06:42 12,4 C 11,1 C 11,1 C 93 % 1006,5 hPa 0,0 l/m 0 min 0 min 3 W/m 9,0 km/h (2 Bft) 97,62 %
25.08.2018 06:44 12,3 C 11,1 C 11,1 C 93 % 1006,5 hPa 0,0 l/m 0 min 0 min 5 W/m 6,8 km/h (2 Bft) 100,00 %
25.08.2018 06:46 12,3 C 11,1 C 11,1 C 93 % 1006,5 hPa 0,0 l/m 0 min 0 min 5 W/m 6,8 km/h (2 Bft) 97,92 %
25.08.2018 06:48 12,3 C 10,6 C 11,1 C 93 % 1006,5 hPa 0,0 l/m 0 min 0 min 6 W/m 6,8 km/h (2 Bft) 100,00 %
25.08.2018 06:50 12,3 C 10,6 C 11,1 C 93 % 1006,5 hPa 0,0 l/m 0 min 0 min 7 W/m 11,3 km/h (2 Bft) 97,92 %
25.08.2018 06:52 12,2 C 10,6 C 11,1 C 93 % 1006,6 hPa 0,0 l/m 0 min 0 min 8 W/m 6,8 km/h (2 Bft) 100,00 %
25.08.2018 06:54 12,2 C 10,6 C 11,1 C 93 % 1006,6 hPa 0,0 l/m 0 min 0 min 9 W/m 6,8 km/h (2 Bft) 97,92 %
25.08.2018 06:56 12,2 C 10,6 C 11,1 C 93 % 1006,6 hPa 0,0 l/m 0 min 0 min 9 W/m 4,5 km/h (1 Bft) 97,92 %
25.08.2018 06:58 12,1 C 10,6 C 11,1 C 93 % 1006,6 hPa 0,0 l/m 0 min 0 min 11 W/m 4,5 km/h (1 Bft) 100,00 %
25.08.2018 07:00 12,1 C 10,6 C 11,1 C 93 % 1006,6 hPa 0,0 l/m 0 min 0 min 11 W/m 2,3 km/h (1 Bft) 95,92 %
25.08.2018 07:02 12,1 C 10,6 C 10,6 C 93 % 1006,5 hPa 0,0 l/m 0 min 0 min 11 W/m 6,8 km/h (2 Bft) 100,00 %
25.08.2018 07:04 12,1 C 10,6 C 11,1 C 93 % 1006,7 hPa 0,0 l/m 0 min 0 min 14 W/m 6,8 km/h (2 Bft) 100,00 %
25.08.2018 07:06 12,1 C 10,6 C 11,1 C 93 % 1006,6 hPa 0,0 l/m 0 min 0 min 20 W/m 4,5 km/h (1 Bft) 100,00 %
25.08.2018 07:08 12,0 C 10,6 C 11,1 C 93 % 1006,6 hPa 0,0 l/m 0 min 0 min 25 W/m 6,8 km/h (2 Bft) 100,00 %
25.08.2018 07:10 12,0 C 10,6 C 11,1 C 93 % 1006,6 hPa 0,0 l/m 0 min 0 min 27 W/m 9,0 km/h (2 Bft) 97,87 %
25.08.2018 07:12 12,0 C 10,6 C 11,1 C 93 % 1006,6 hPa 0,0 l/m 0 min 0 min 25 W/m 13,5 km/h (3 Bft) 100,00 %
25.08.2018 07:14 12,0 C 10,6 C 11,1 C 93 % 1006,6 hPa 0,0 l/m 0 min 0 min 26 W/m 2,3 km/h (1 Bft) 100,00 %
25.08.2018 07:16 12,0 C 10,6 C 11,1 C 93 % 1006,7 hPa 0,0 l/m 0 min 0 min 28 W/m 9,0 km/h (2 Bft) 100,00 %
25.08.2018 07:18 11,9 C 10,6 C 11,1 C 93 % 1006,6 hPa 0,0 l/m 0 min 0 min 29 W/m 6,8 km/h (2 Bft) 100,00 %
25.08.2018 07:20 11,9 C 10,6 C 11,1 C 93 % 1006,8 hPa 0,0 l/m 0 min 0 min 26 W/m 6,8 km/h (2 Bft) 100,00 %
25.08.2018 07:22 11,9 C 10,6 C 11,1 C 93 % 1006,7 hPa 0,0 l/m 0 min 0 min 25 W/m 4,5 km/h (1 Bft) 100,00 %
25.08.2018 07:24 11,9 C 10,6 C 11,1 C 93 % 1006,9 hPa 0,0 l/m 0 min 0 min 25 W/m 9,0 km/h (2 Bft) 100,00 %
25.08.2018 07:26 11,9 C 10,6 C 11,1 C 93 % 1006,7 hPa 0,0 l/m 0 min 0 min 25 W/m 6,8 km/h (2 Bft) 100,00 %
25.08.2018 07:28 11,9 C 10,6 C 11,1 C 93 % 1006,8 hPa 0,0 l/m 0 min 0 min 21 W/m 9,0 km/h (2 Bft) 100,00 %
25.08.2018 07:30 11,9 C 10,6 C 11,1 C 93 % 1006,8 hPa 0,0 l/m 0 min 0 min 22 W/m 4,5 km/h (1 Bft) 97,87 %
25.08.2018 07:32 11,9 C 10,6 C 11,1 C 93 % 1006,8 hPa 0,0 l/m 0 min 0 min 24 W/m 6,8 km/h (2 Bft) 100,00 %
25.08.2018 07:34 11,9 C 10,6 C 11,1 C 93 % 1006,8 hPa 0,0 l/m 0 min 0 min 24 W/m 11,3 km/h (2 Bft) 100,00 %
25.08.2018 07:36 11,8 C 10,6 C 11,1 C 93 % 1006,9 hPa 0,0 l/m 0 min 0 min 25 W/m 11,3 km/h (2 Bft) 100,00 %
25.08.2018 07:38 11,8 C 10,6 C 11,1 C 93 % 1006,7 hPa 0,0 l/m 0 min 0 min 26 W/m 4,5 km/h (1 Bft) 100,00 %
25.08.2018 07:40 11,8 C 10,6 C 11,1 C 93 % 1006,8 hPa 0,0 l/m 0 min 0 min 30 W/m 9,0 km/h (2 Bft) 100,00 %
25.08.2018 07:42 11,8 C 10,6 C 11,1 C 93 % 1006,8 hPa 0,0 l/m 0 min 0 min 34 W/m 11,3 km/h (2 Bft) 100,00 %
25.08.2018 07:44 11,8 C 10,6 C 11,1 C 93 % 1006,8 hPa 0,0 l/m 0 min 0 min 37 W/m 6,8 km/h (2 Bft) 100,00 %
25.08.2018 07:46 11,8 C 10,6 C 11,1 C 93 % 1006,8 hPa 0,0 l/m 0 min 0 min 35 W/m 6,8 km/h (2 Bft) 100,00 %
25.08.2018 07:48 11,7 C 10,6 C 11,1 C 93 % 1006,8 hPa 0,0 l/m 0 min 0 min 35 W/m 6,8 km/h (2 Bft) 100,00 %
25.08.2018 07:50 11,7 C 10,6 C 11,1 C 93 % 1006,8 hPa 0,0 l/m 0 min 0 min 45 W/m 4,5 km/h (1 Bft) 100,00 %
25.08.2018 07:52 11,7 C 10,6 C 11,1 C 93 % 1007,0 hPa 0,0 l/m 0 min 0 min 47 W/m 4,5 km/h (1 Bft) 100,00 %
25.08.2018 07:54 11,8 C 10,6 C 11,1 C 94 % 1007,0 hPa 0,0 l/m 0 min 0 min 45 W/m 6,8 km/h (2 Bft) 100,00 %
25.08.2018 07:56 11,7 C 10,6 C 11,1 C 94 % 1007,0 hPa 0,0 l/m 0 min 0 min 43 W/m 6,8 km/h (2 Bft) 97,87 %
25.08.2018 07:58 11,7 C 10,6 C 11,1 C 94 % 1007,0 hPa 0,0 l/m 0 min 0 min 47 W/m 6,8 km/h (2 Bft) 100,00 %
25.08.2018 08:00 11,7 C 10,6 C 11,1 C 94 % 1007,0 hPa 0,0 l/m 0 min 0 min 64 W/m 6,8 km/h (2 Bft) 100,00 %
25.08.2018 08:02 11,7 C 11,1 C 11,1 C 94 % 1007,1 hPa 0,0 l/m 0 min 0 min 87 W/m 11,3 km/h (2 Bft) 100,00 %
25.08.2018 08:04 11,8 C 11,1 C 11,1 C 94 % 1007,2 hPa 0,0 l/m 0 min 0 min 102 W/m 11,3 km/h (2 Bft) 100,00 %
25.08.2018 08:06 11,8 C 11,1 C 11,7 C 94 % 1007,2 hPa 0,0 l/m 0 min 0 min 91 W/m 6,8 km/h (2 Bft) 100,00 %
25.08.2018 08:08 11,8 C 11,1 C 11,7 C 94 % 1007,1 hPa 0,0 l/m 0 min 0 min 67 W/m 4,5 km/h (1 Bft) 97,87 %
25.08.2018 08:10 11,8 C 11,1 C 11,7 C 94 % 1007,2 hPa 0,0 l/m 0 min 0 min 68 W/m 9,0 km/h (2 Bft) 97,92 %
25.08.2018 08:12 11,8 C 11,1 C 11,7 C 94 % 1007,2 hPa 0,0 l/m 0 min 0 min 47 W/m 4,5 km/h (1 Bft) 95,74 %
25.08.2018 08:14 11,8 C 11,1 C 11,7 C 94 % 1007,2 hPa 0,0 l/m 0 min 0 min 61 W/m 4,5 km/h (1 Bft) 97,92 %
25.08.2018 08:16 11,9 C 11,1 C 11,7 C 94 % 1007,2 hPa 0,0 l/m 0 min 0 min 59 W/m 11,3 km/h (2 Bft) 97,30 %
25.08.2018 08:18 11,9 C 10,6 C 11,7 C 94 % 1007,2 hPa 0,0 l/m 0 min 0 min 52 W/m 11,3 km/h (2 Bft) 97,87 %
25.08.2018 08:20 11,9 C 11,1 C 11,7 C 94 % 1007,2 hPa 0,0 l/m 0 min 0 min 71 W/m 6,8 km/h (2 Bft) 100,00 %
25.08.2018 08:22 11,9 C 11,1 C 11,7 C 94 % 1007,2 hPa 0,0 l/m 0 min 0 min 115 W/m 6,8 km/h (2 Bft) 97,96 %
25.08.2018 08:24 11,9 C 11,1 C 11,7 C 94 % 1007,2 hPa 0,0 l/m 2 min 0 min 134 W/m 9,0 km/h (2 Bft) 97,92 %
25.08.2018 08:26 11,9 C 11,1 C 11,7 C 94 % 1007,3 hPa 0,0 l/m 0 min 0 min 81 W/m 6,8 km/h (2 Bft) 100,00 %
25.08.2018 08:28 11,9 C 11,1 C 11,7 C 94 % 1007,3 hPa 0,0 l/m 0 min 0 min 47 W/m 9,0 km/h (2 Bft) 97,92 %
25.08.2018 08:30 11,9 C 11,1 C 11,7 C 94 % 1007,3 hPa 0,0 l/m 0 min 0 min 73 W/m 11,3 km/h (2 Bft) 97,87 %
25.08.2018 08:32 11,9 C 11,1 C 11,7 C 94 % 1007,5 hPa 0,0 l/m 0 min 0 min 93 W/m 13,5 km/h (3 Bft) 95,92 %
25.08.2018 08:34 11,9 C 11,1 C 11,7 C 93 % 1007,4 hPa 0,0 l/m 0 min 0 min 97 W/m 9,0 km/h (2 Bft) 97,92 %
25.08.2018 08:36 12,0 C 11,1 C 11,7 C 93 % 1007,3 hPa 0,0 l/m 2 min 0 min 162 W/m 6,8 km/h (2 Bft) 97,92 %
25.08.2018 08:38 12,0 C 11,7 C 12,2 C 94 % 1007,6 hPa 0,0 l/m 0 min 0 min 134 W/m 9,0 km/h (2 Bft) 97,96 %
25.08.2018 08:40 12,0 C 11,7 C 12,2 C 94 % 1007,4 hPa 0,0 l/m 0 min 0 min 134 W/m 11,3 km/h (2 Bft) 95,65 %
25.08.2018 08:42 12,1 C 11,7 C 12,2 C 94 % 1007,4 hPa 0,0 l/m 2 min 0 min 165 W/m 4,5 km/h (1 Bft) 95,74 %
25.08.2018 08:44 12,1 C 11,7 C 12,2 C 94 % 1007,4 hPa 0,0 l/m 2 min 0 min 161 W/m 6,8 km/h (2 Bft) 93,75 %
25.08.2018 08:46 12,2 C 12,2 C 12,2 C 94 % 1007,4 hPa 0,0 l/m 2 min 0 min 171 W/m 6,8 km/h (2 Bft) 97,87 %
25.08.2018 08:48 12,2 C 11,7 C 12,2 C 94 % 1007,4 hPa 0,0 l/m 0 min 0 min 119 W/m 6,8 km/h (2 Bft) 97,87 %
25.08.2018 08:50 12,3 C 11,7 C 12,2 C 93 % 1007,4 hPa 0,0 l/m 0 min 0 min 119 W/m 11,3 km/h (2 Bft) 95,74 %
25.08.2018 08:52 12,3 C 11,7 C 12,2 C 93 % 1007,4 hPa 0,0 l/m 0 min 0 min 129 W/m 9,0 km/h (2 Bft) 95,65 %
25.08.2018 08:54 12,3 C 11,7 C 12,2 C 93 % 1007,5 hPa 0,0 l/m 0 min 0 min 120 W/m 9,0 km/h (2 Bft) 95,74 %
25.08.2018 08:56 12,3 C 11,7 C 12,2 C 93 % 1007,5 hPa 0,0 l/m 0 min 0 min 146 W/m 9,0 km/h (2 Bft) 95,24 %
25.08.2018 08:58 12,3 C 11,7 C 12,2 C 93 % 1007,4 hPa 0,0 l/m 0 min 0 min 138 W/m 11,3 km/h (2 Bft) 95,74 %
25.08.2018 09:00 12,3 C 11,7 C 12,2 C 93 % 1007,5 hPa 0,0 l/m 0 min 0 min 131 W/m 6,8 km/h (2 Bft) 93,62 %
25.08.2018 09:02 12,4 C 11,7 C 12,2 C 93 % 1007,5 hPa 0,0 l/m 0 min 0 min 179 W/m 9,0 km/h (2 Bft) 97,37 %
25.08.2018 09:04 12,4 C 12,2 C 12,2 C 92 % 1007,5 hPa 0,0 l/m 2 min 0 min 215 W/m 6,8 km/h (2 Bft) 92,00 %
25.08.2018 09:06 12,4 C 11,7 C 12,2 C 92 % 1007,5 hPa 0,0 l/m 0 min 0 min 181 W/m 11,3 km/h (2 Bft) 95,83 %
25.08.2018 09:08 12,4 C 11,7 C 12,2 C 92 % 1007,6 hPa 0,0 l/m 0 min 0 min 128 W/m 13,5 km/h (3 Bft) 95,83 %
25.08.2018 09:10 12,5 C 11,7 C 12,2 C 92 % 1007,6 hPa 0,0 l/m 0 min 0 min 124 W/m 9,0 km/h (2 Bft) 97,87 %
25.08.2018 09:12 12,5 C 11,7 C 12,2 C 92 % 1007,6 hPa 0,0 l/m 0 min 0 min 118 W/m 11,3 km/h (2 Bft) 95,74 %
25.08.2018 09:14 12,5 C 11,7 C 12,2 C 91 % 1007,5 hPa 0,0 l/m 0 min 0 min 116 W/m 9,0 km/h (2 Bft) 97,87 %
25.08.2018 09:16 12,5 C 11,7 C 12,2 C 91 % 1007,6 hPa 0,0 l/m 0 min 0 min 88 W/m 6,8 km/h (2 Bft) 97,87 %
25.08.2018 09:18 12,6 C 11,7 C 12,2 C 91 % 1007,6 hPa 0,0 l/m 0 min 0 min 99 W/m 11,3 km/h (2 Bft) 97,83 %
25.08.2018 09:20 12,6 C 11,7 C 12,2 C 90 % 1007,6 hPa 0,0 l/m 0 min 0 min 142 W/m 6,8 km/h (2 Bft) 97,62 %
25.08.2018 09:22 12,6 C 11,7 C 12,2 C 90 % 1007,6 hPa 0,0 l/m 0 min 0 min 141 W/m 6,8 km/h (2 Bft) 95,74 %
25.08.2018 09:24 12,6 C 12,8 C 12,2 C 90 % 1007,6 hPa 0,0 l/m 2 min 0 min 319 W/m 6,8 km/h (2 Bft) 96,36 %
25.08.2018 09:26 12,6 C 12,2 C 12,2 C 90 % 1007,6 hPa 0,0 l/m 2 min 0 min 209 W/m 9,0 km/h (2 Bft) 97,87 %
25.08.2018 09:28 12,6 C 12,2 C 12,2 C 89 % 1007,7 hPa 0,0 l/m 0 min 0 min 144 W/m 18,0 km/h (3 Bft) 97,83 %
25.08.2018 09:30 12,7 C 12,2 C 12,2 C 89 % 1007,6 hPa 0,0 l/m 2 min 0 min 393 W/m 13,5 km/h (3 Bft) 95,35 %
25.08.2018 09:32 12,7 C 12,2 C 12,2 C 88 % 1007,6 hPa 0,0 l/m 2 min 0 min 224 W/m 9,0 km/h (2 Bft) 97,87 %
25.08.2018 09:34 12,7 C 11,7 C 12,2 C 88 % 1007,8 hPa 0,0 l/m 0 min 0 min 101 W/m 11,3 km/h (2 Bft) 95,83 %
25.08.2018 09:36 12,7 C 12,2 C 12,2 C 88 % 1007,8 hPa 0,0 l/m 0 min 0 min 151 W/m 15,8 km/h (3 Bft) 93,75 %
25.08.2018 09:38 12,8 C 12,8 C 12,2 C 87 % 1007,7 hPa 0,0 l/m 2 min 0 min 383 W/m 11,3 km/h (2 Bft) 93,88 %
25.08.2018 09:40 12,8 C 12,8 C 12,2 C 87 % 1007,8 hPa 0,0 l/m 2 min 0 min 383 W/m 13,5 km/h (3 Bft) 95,83 %
25.08.2018 09:42 12,9 C 13,3 C 12,8 C 87 % 1007,8 hPa 0,0 l/m 2 min 0 min 397 W/m 18,0 km/h (3 Bft) 97,87 %
25.08.2018 09:44 12,9 C 13,9 C 12,8 C 86 % 1007,7 hPa 0,0 l/m 2 min 0 min 496 W/m 11,3 km/h (2 Bft) 97,92 %
25.08.2018 09:46 13,0 C 13,3 C 12,8 C 86 % 1007,7 hPa 0,0 l/m 2 min 0 min 385 W/m 11,3 km/h (2 Bft) 97,92 %
25.08.2018 09:48 13,1 C 14,4 C 12,8 C 86 % 1007,8 hPa 0,0 l/m 2 min 0 min 251 W/m 18,0 km/h (3 Bft) 97,22 %
25.08.2018 09:50 13,2 C 14,4 C 12,8 C 86 % 1007,9 hPa 0,0 l/m 2 min 0 min 433 W/m 11,3 km/h (2 Bft) 95,83 %
25.08.2018 09:52 13,2 C 14,4 C 12,8 C 85 % 1007,8 hPa 0,0 l/m 2 min 0 min 481 W/m 9,0 km/h (2 Bft) 97,96 %
25.08.2018 09:54 13,3 C 13,9 C 12,8 C 85 % 1008,0 hPa 0,0 l/m 2 min 0 min 306 W/m 9,0 km/h (2 Bft) 97,87 %
25.08.2018 09:56 13,4 C 13,3 C 12,8 C 85 % 1007,9 hPa 0,0 l/m 0 min 0 min 238 W/m 11,3 km/h (2 Bft) 97,87 %
25.08.2018 09:58 13,5 C 13,9 C 13,3 C 85 % 1008,0 hPa 0,0 l/m 2 min 0 min 408 W/m 20,3 km/h (4 Bft) 97,92 %
25.08.2018 10:00 13,6 C 13,9 C 13,3 C 85 % 1008,0 hPa 0,0 l/m 2 min 0 min 363 W/m 13,5 km/h (3 Bft) 97,87 %
25.08.2018 10:02 13,7 C 13,9 C 13,3 C 85 % 1008,0 hPa 0,0 l/m 0 min 0 min 193 W/m 11,3 km/h (2 Bft) 97,92 %
25.08.2018 10:04 13,7 C 13,9 C 12,8 C 84 % 1008,0 hPa 0,0 l/m 0 min 0 min 185 W/m 11,3 km/h (2 Bft) 95,65 %
25.08.2018 10:06 13,7 C 14,4 C 12,8 C 84 % 1008,1 hPa 0,0 l/m 0 min 0 min 185 W/m 9,0 km/h (2 Bft) 97,87 %
25.08.2018 10:08 13,8 C 15,0 C 12,8 C 84 % 1008,1 hPa 0,0 l/m 0 min 0 min 200 W/m 11,3 km/h (2 Bft) 97,87 %
25.08.2018 10:10 13,8 C 14,4 C 12,8 C 83 % 1008,1 hPa 0,0 l/m 0 min 0 min 144 W/m 15,8 km/h (3 Bft) 97,62 %
25.08.2018 10:12 13,8 C 15,0 C 12,8 C 83 % 1008,0 hPa 0,0 l/m 0 min 0 min 182 W/m 13,5 km/h (3 Bft) 97,96 %
25.08.2018 10:14 13,9 C 15,0 C 12,8 C 83 % 1008,2 hPa 0,0 l/m 2 min 0 min 479 W/m 13,5 km/h (3 Bft) 97,92 %
25.08.2018 10:16 13,9 C 16,1 C 13,3 C 82 % 1008,1 hPa 0,0 l/m 2 min 0 min 502 W/m 9,0 km/h (2 Bft) 97,83 %
25.08.2018 10:18 14,0 C 17,2 C 13,3 C 82 % 1008,0 hPa 0,0 l/m 2 min 0 min 509 W/m 9,0 km/h (2 Bft) 97,87 %
25.08.2018 10:20 14,1 C 17,8 C 13,3 C 81 % 1008,0 hPa 0,0 l/m 2 min 0 min 508 W/m 13,5 km/h (3 Bft) 97,87 %
25.08.2018 10:22 14,2 C 18,3 C 13,3 C 81 % 1008,1 hPa 0,0 l/m 2 min 0 min 492 W/m 11,3 km/h (2 Bft) 95,92 %
25.08.2018 10:24 14,2 C 18,3 C 13,3 C 81 % 1008,2 hPa 0,0 l/m 2 min 0 min 518 W/m 13,5 km/h (3 Bft) 100,00 %
25.08.2018 10:26 14,2 C 17,8 C 13,3 C 80 % 1008,1 hPa 0,0 l/m 2 min 0 min 512 W/m 15,8 km/h (3 Bft) 100,00 %
25.08.2018 10:28 14,3 C 18,3 C 13,3 C 79 % 1008,1 hPa 0,0 l/m 2 min 0 min 507 W/m 11,3 km/h (2 Bft) 97,87 %
25.08.2018 10:30 14,4 C 19,4 C 13,3 C 79 % 1008,1 hPa 0,0 l/m 2 min 0 min 508 W/m 13,5 km/h (3 Bft) 100,00 %
25.08.2018 10:32 14,5 C 20,0 C 13,9 C 78 % 1008,0 hPa 0,0 l/m 2 min 0 min 511 W/m 11,3 km/h (2 Bft) 100,00 %
25.08.2018 10:34 14,7 C 19,4 C 13,9 C 78 % 1008,1 hPa 0,0 l/m 2 min 0 min 512 W/m 11,3 km/h (2 Bft) 100,00 %
25.08.2018 10:36 14,8 C 20,0 C 13,9 C 77 % 1008,2 hPa 0,0 l/m 2 min 0 min 520 W/m 13,5 km/h (3 Bft) 100,00 %
25.08.2018 10:38 14,9 C 19,4 C 13,9 C 76 % 1008,3 hPa 0,0 l/m 2 min 0 min 529 W/m 11,3 km/h (2 Bft) 97,92 %
25.08.2018 10:40 15,0 C 19,4 C 13,9 C 76 % 1008,3 hPa 0,0 l/m 2 min 0 min 528 W/m 6,8 km/h (2 Bft) 100,00 %
25.08.2018 10:42 15,2 C 20,0 C 13,9 C 77 % 1008,3 hPa 0,0 l/m 2 min 0 min 534 W/m 11,3 km/h (2 Bft) 97,92 %
25.08.2018 10:44 15,3 C 18,9 C 13,9 C 76 % 1008,3 hPa 0,0 l/m 2 min 0 min 541 W/m 11,3 km/h (2 Bft) 100,00 %
25.08.2018 10:46 15,4 C 19,4 C 13,9 C 76 % 1008,5 hPa 0,0 l/m 2 min 0 min 508 W/m 9,0 km/h (2 Bft) 100,00 %
25.08.2018 10:48 15,6 C 20,0 C 13,9 C 75 % 1008,4 hPa 0,0 l/m 2 min 0 min 564 W/m 9,0 km/h (2 Bft) 100,00 %
25.08.2018 10:50 15,7 C 21,1 C 14,4 C 75 % 1008,4 hPa 0,0 l/m 2 min 0 min 591 W/m 9,0 km/h (2 Bft) 100,00 %
25.08.2018 10:52 15,8 C 20,6 C 14,4 C 75 % 1008,5 hPa 0,0 l/m 2 min 0 min 583 W/m 15,8 km/h (3 Bft) 100,00 %
25.08.2018 10:54 15,9 C 20,0 C 14,4 C 73 % 1008,4 hPa 0,0 l/m 2 min 0 min 588 W/m 13,5 km/h (3 Bft) 100,00 %
25.08.2018 10:56 16,1 C 20,0 C 14,4 C 72 % 1008,4 hPa 0,0 l/m 2 min 0 min 571 W/m 13,5 km/h (3 Bft) 100,00 %
25.08.2018 10:58 16,1 C 20,6 C 14,4 C 72 % 1008,5 hPa 0,0 l/m 2 min 0 min 578 W/m 11,3 km/h (2 Bft) 100,00 %
25.08.2018 11:00 16,2 C 20,6 C 14,4 C 71 % 1008,6 hPa 0,0 l/m 2 min 0 min 581 W/m 11,3 km/h (2 Bft) 100,00 %
25.08.2018 11:02 16,3 C 21,1 C 14,4 C 71 % 1008,5 hPa 0,0 l/m 2 min 0 min 588 W/m 11,3 km/h (2 Bft) 97,92 %
25.08.2018 11:04 16,3 C 19,4 C 14,4 C 71 % 1008,6 hPa 0,0 l/m 2 min 0 min 612 W/m 11,3 km/h (2 Bft) 100,00 %
25.08.2018 11:06 16,4 C 20,6 C 14,4 C 71 % 1008,6 hPa 0,0 l/m 2 min 0 min 611 W/m 22,5 km/h (4 Bft) 100,00 %
25.08.2018 11:08 16,4 C 20,6 C 14,4 C 71 % 1008,5 hPa 0,0 l/m 2 min 0 min 621 W/m 6,8 km/h (2 Bft) 100,00 %
25.08.2018 11:10 16,6 C 21,7 C 14,4 C 71 % 1008,5 hPa 0,0 l/m 2 min 0 min 650 W/m 9,0 km/h (2 Bft) 100,00 %
25.08.2018 11:12 16,6 C 21,1 C 14,4 C 71 % 1008,6 hPa 0,0 l/m 2 min 0 min 721 W/m 15,8 km/h (3 Bft) 100,00 %
25.08.2018 11:14 16,7 C 20,6 C 15,0 C 71 % 1008,6 hPa 0,0 l/m 2 min 0 min 510 W/m 9,0 km/h (2 Bft) 100,00 %
25.08.2018 11:16 16,8 C 19,4 C 15,0 C 71 % 1008,7 hPa 0,0 l/m 0 min 0 min 212 W/m 11,3 km/h (2 Bft) 100,00 %
25.08.2018 11:18 16,8 C 20,6 C 15,0 C 70 % 1008,6 hPa 0,0 l/m 2 min 0 min 353 W/m 15,8 km/h (3 Bft) 100,00 %
25.08.2018 11:20 16,9 C 21,1 C 15,0 C 70 % 1008,8 hPa 0,0 l/m 2 min 0 min 647 W/m 20,3 km/h (4 Bft) 100,00 %
25.08.2018 11:22 16,9 C 21,1 C 15,0 C 70 % 1008,8 hPa 0,0 l/m 2 min 0 min 634 W/m 15,8 km/h (3 Bft) 97,87 %
25.08.2018 11:24 17,0 C 21,7 C 14,4 C 69 % 1008,9 hPa 0,0 l/m 2 min 0 min 634 W/m 11,3 km/h (2 Bft) 95,74 %
25.08.2018 11:26 17,0 C 21,7 C 14,4 C 69 % 1008,7 hPa 0,0 l/m 2 min 0 min 631 W/m 15,8 km/h (3 Bft) 95,65 %
25.08.2018 11:28 17,1 C 22,2 C 14,4 C 69 % 1008,8 hPa 0,0 l/m 2 min 0 min 638 W/m 13,5 km/h (3 Bft) 97,87 %
25.08.2018 11:30 17,1 C 22,8 C 15,0 C 70 % 1008,7 hPa 0,0 l/m 2 min 0 min 660 W/m 13,5 km/h (3 Bft) 95,35 %
25.08.2018 11:32 17,2 C 22,2 C 15,0 C 69 % 1008,8 hPa 0,0 l/m 2 min 0 min 565 W/m 13,5 km/h (3 Bft) 95,74 %
25.08.2018 11:34 17,3 C 23,3 C 15,0 C 69 % 1008,9 hPa 0,0 l/m 2 min 0 min 628 W/m 13,5 km/h (3 Bft) 97,92 %
25.08.2018 11:36 17,3 C 23,3 C 15,0 C 70 % 1008,8 hPa 0,0 l/m 2 min 0 min 713 W/m 9,0 km/h (2 Bft) 95,83 %
25.08.2018 11:38 17,4 C 22,2 C 15,0 C 70 % 1008,8 hPa 0,0 l/m 2 min 0 min 757 W/m 15,8 km/h (3 Bft) 97,92 %
25.08.2018 11:40 17,5 C 21,1 C 15,0 C 70 % 1008,9 hPa 0,0 l/m 2 min 0 min 421 W/m 20,3 km/h (4 Bft) 93,75 %
25.08.2018 11:42 17,6 C 20,6 C 15,0 C 68 % 1008,9 hPa 0,0 l/m 2 min 0 min 360 W/m 11,3 km/h (2 Bft) 97,87 %
25.08.2018 11:44 17,6 C 21,7 C 15,0 C 68 % 1008,9 hPa 0,0 l/m 2 min 0 min 551 W/m 9,0 km/h (2 Bft) 95,92 %
25.08.2018 11:46 17,6 C 21,1 C 15,0 C 68 % 1008,9 hPa 0,0 l/m 2 min 0 min 761 W/m 13,5 km/h (3 Bft) 95,74 %
25.08.2018 11:48 17,6 C 21,1 C 15,0 C 67 % 1008,9 hPa 0,0 l/m 2 min 0 min 604 W/m 11,3 km/h (2 Bft) 95,65 %
25.08.2018 11:50 17,6 C 22,8 C 15,0 C 68 % 1008,9 hPa 0,0 l/m 2 min 0 min 459 W/m 15,8 km/h (3 Bft) 97,87 %
25.08.2018 11:52 17,7 C 23,9 C 15,0 C 68 % 1008,9 hPa 0,0 l/m 2 min 0 min 753 W/m 6,8 km/h (2 Bft) 95,24 %
25.08.2018 11:54 17,8 C 22,2 C 15,6 C 68 % 1008,9 hPa 0,0 l/m 2 min 0 min 772 W/m 9,0 km/h (2 Bft) 95,92 %
25.08.2018 11:56 17,8 C 22,2 C 15,6 C 67 % 1008,9 hPa 0,0 l/m 2 min 0 min 765 W/m 13,5 km/h (3 Bft) 95,74 %
25.08.2018 11:58 17,8 C 22,8 C 15,6 C 67 % 1009,1 hPa 0,0 l/m 2 min 0 min 758 W/m 15,8 km/h (3 Bft) 97,96 %
25.08.2018 12:00 17,9 C 23,3 C 15,6 C 67 % 1008,9 hPa 0,0 l/m 2 min 0 min 771 W/m 11,3 km/h (2 Bft) 97,83 %
25.08.2018 12:02 18,0 C 22,8 C 15,6 C 67 % 1009,1 hPa 0,0 l/m 2 min 0 min 773 W/m 13,5 km/h (3 Bft) 95,83 %
25.08.2018 12:04 18,0 C 20,6 C 15,6 C 65 % 1009,0 hPa 0,0 l/m 2 min 0 min 773 W/m 15,8 km/h (3 Bft) 95,74 %
25.08.2018 12:06 18,0 C 21,7 C 15,6 C 65 % 1009,0 hPa 0,0 l/m 2 min 0 min 738 W/m 20,3 km/h (4 Bft) 97,87 %
25.08.2018 12:08 18,0 C 22,8 C 15,6 C 66 % 1009,0 hPa 0,0 l/m 2 min 0 min 742 W/m 9,0 km/h (2 Bft) 97,67 %
25.08.2018 12:10 18,0 C 21,7 C 15,6 C 64 % 1009,0 hPa 0,0 l/m 2 min 0 min 768 W/m 13,5 km/h (3 Bft) 100,00 %
25.08.2018 12:12 18,1 C 20,6 C 15,6 C 65 % 1009,0 hPa 0,0 l/m 2 min 0 min 768 W/m 11,3 km/h (2 Bft) 95,92 %
25.08.2018 12:14 17,9 C 18,3 C 15,6 C 65 % 1009,1 hPa 0,0 l/m 2 min 0 min 484 W/m 13,5 km/h (3 Bft) 93,62 %
25.08.2018 12:16 17,9 C 18,9 C 15,6 C 65 % 1009,0 hPa 0,0 l/m 0 min 0 min 327 W/m 13,5 km/h (3 Bft) 97,87 %
25.08.2018 12:18 17,8 C 20,0 C 15,6 C 66 % 1009,0 hPa 0,0 l/m 2 min 0 min 421 W/m 13,5 km/h (3 Bft) 95,83 %
25.08.2018 12:20 17,8 C 20,0 C 15,6 C 64 % 1009,1 hPa 0,0 l/m 2 min 0 min 584 W/m 13,5 km/h (3 Bft) 95,83 %
25.08.2018 12:22 17,8 C 18,9 C 15,6 C 65 % 1009,2 hPa 0,0 l/m 2 min 0 min 457 W/m 11,3 km/h (2 Bft) 95,83 %
25.08.2018 12:24 17,7 C 18,9 C 15,0 C 64 % 1009,1 hPa 0,0 l/m 0 min 0 min 178 W/m 11,3 km/h (2 Bft) 95,65 %
25.08.2018 12:26 17,6 C 18,3 C 15,0 C 64 % 1009,1 hPa 0,0 l/m 0 min 0 min 145 W/m 9,0 km/h (2 Bft) 95,74 %
25.08.2018 12:28 17,6 C 20,0 C 15,0 C 65 % 1009,1 hPa 0,0 l/m 0 min 0 min 171 W/m 15,8 km/h (3 Bft) 97,87 %
25.08.2018 12:30 17,6 C 21,7 C 15,6 C 65 % 1009,1 hPa 0,0 l/m 0 min 0 min 233 W/m 11,3 km/h (2 Bft) 95,74 %
25.08.2018 12:32 17,6 C 22,2 C 15,6 C 65 % 1009,1 hPa 0,0 l/m 0 min 0 min 153 W/m 9,0 km/h (2 Bft) 95,24 %
25.08.2018 12:34 17,6 C 22,2 C 15,6 C 65 % 1009,0 hPa 0,0 l/m 0 min 0 min 169 W/m 13,5 km/h (3 Bft) 95,74 %
25.08.2018 12:36 17,7 C 23,3 C 15,6 C 65 % 1009,1 hPa 0,0 l/m 0 min 0 min 177 W/m 15,8 km/h (3 Bft) 95,65 %
25.08.2018 12:38 17,8 C 23,9 C 16,1 C 66 % 1009,0 hPa 0,0 l/m 0 min 0 min 140 W/m 6,8 km/h (2 Bft) 95,92 %
25.08.2018 12:40 17,9 C 25,0 C 16,1 C 66 % 1009,1 hPa 0,0 l/m 0 min 0 min 152 W/m 9,0 km/h (2 Bft) 95,74 %
25.08.2018 12:42 18,1 C 25,0 C 16,1 C 65 % 1009,2 hPa 0,0 l/m 0 min 0 min 199 W/m 13,5 km/h (3 Bft) 95,74 %
25.08.2018 12:44 18,2 C 23,3 C 16,1 C 66 % 1009,1 hPa 0,0 l/m 0 min 0 min 234 W/m 13,5 km/h (3 Bft) 95,83 %
25.08.2018 12:46 18,2 C 20,0 C 16,1 C 64 % 1009,1 hPa 0,0 l/m 0 min 0 min 202 W/m 9,0 km/h (2 Bft) 95,83 %
25.08.2018 12:48 18,2 C 18,9 C 15,6 C 65 % 1009,1 hPa 0,0 l/m 0 min 0 min 153 W/m 11,3 km/h (2 Bft) 93,62 %
25.08.2018 12:50 18,1 C 17,2 C 15,6 C 64 % 1009,2 hPa 0,0 l/m 0 min 0 min 110 W/m 18,0 km/h (3 Bft) 95,74 %
25.08.2018 12:52 18,0 C 16,1 C 15,0 C 65 % 1009,2 hPa 0,0 l/m 0 min 0 min 100 W/m 9,0 km/h (2 Bft) 93,62 %
25.08.2018 12:54 17,9 C 16,7 C 15,0 C 65 % 1009,2 hPa 0,0 l/m 0 min 0 min 107 W/m 6,8 km/h (2 Bft) 95,83 %
25.08.2018 12:56 17,8 C 19,4 C 15,0 C 66 % 1009,3 hPa 0,0 l/m 0 min 0 min 240 W/m 15,8 km/h (3 Bft) 93,75 %
25.08.2018 12:58 17,7 C 21,1 C 15,6 C 66 % 1009,3 hPa 0,0 l/m 0 min 0 min 357 W/m 9,0 km/h (2 Bft) 97,22 %
25.08.2018 13:00 17,7 C 21,7 C 16,1 C 66 % 1009,3 hPa 0,0 l/m 0 min 0 min 357 W/m 15,8 km/h (3 Bft) 95,74 %
25.08.2018 13:02 17,8 C 22,2 C 16,1 C 67 % 1009,3 hPa 0,0 l/m 2 min 0 min 456 W/m 11,3 km/h (2 Bft) 95,92 %
25.08.2018 13:04 17,8 C 20,6 C 16,7 C 68 % 1009,2 hPa 0,0 l/m 2 min 0 min 556 W/m 9,0 km/h (2 Bft) 93,62 %
25.08.2018 13:06 17,9 C 19,4 C 16,1 C 67 % 1009,3 hPa 0,0 l/m 0 min 0 min 307 W/m 6,8 km/h (2 Bft) 93,62 %
25.08.2018 13:08 17,9 C 19,4 C 16,1 C 66 % 1009,3 hPa 0,0 l/m 0 min 0 min 341 W/m 13,5 km/h (3 Bft) 95,74 %
25.08.2018 13:10 17,9 C 19,4 C 16,1 C 66 % 1009,2 hPa 0,0 l/m 0 min 0 min 314 W/m 15,8 km/h (3 Bft) 95,24 %
25.08.2018 13:12 18,0 C 18,9 C 16,7 C 65 % 1009,2 hPa 0,0 l/m 2 min 0 min 375 W/m 13,5 km/h (3 Bft) 97,96 %
25.08.2018 13:14 18,0 C 18,3 C 16,1 C 66 % 1009,2 hPa 0,0 l/m 0 min 0 min 269 W/m 11,3 km/h (2 Bft) 95,74 %
25.08.2018 13:16 18,0 C 17,8 C 16,1 C 65 % 1009,2 hPa 0,0 l/m 0 min 0 min 285 W/m 13,5 km/h (3 Bft) 97,96 %
25.08.2018 13:18 17,9 C 17,2 C 15,6 C 65 % 1009,3 hPa 0,0 l/m 0 min 0 min 270 W/m 13,5 km/h (3 Bft) 97,87 %
25.08.2018 13:20 17,8 C 16,7 C 15,6 C 64 % 1009,4 hPa 0,0 l/m 0 min 0 min 253 W/m 13,5 km/h (3 Bft) 97,92 %
25.08.2018 13:22 17,7 C 17,2 C 15,6 C 65 % 1009,4 hPa 0,0 l/m 0 min 0 min 315 W/m 11,3 km/h (2 Bft) 95,92 %
25.08.2018 13:24 17,7 C 18,3 C 15,6 C 67 % 1009,4 hPa 0,0 l/m 0 min 0 min 366 W/m 13,5 km/h (3 Bft) 97,87 %
25.08.2018 13:26 17,7 C 18,9 C 16,1 C 67 % 1009,4 hPa 0,0 l/m 2 min 0 min 407 W/m 13,5 km/h (3 Bft) 97,87 %
25.08.2018 13:28 17,7 C 17,8 C 15,6 C 66 % 1009,4 hPa 0,0 l/m 2 min 0 min 522 W/m 13,5 km/h (3 Bft) 97,87 %
25.08.2018 13:30 17,6 C 18,3 C 16,1 C 67 % 1009,3 hPa 0,0 l/m 2 min 0 min 520 W/m 9,0 km/h (2 Bft) 97,87 %
25.08.2018 13:32 17,7 C 18,9 C 16,1 C 67 % 1009,3 hPa 0,0 l/m 2 min 0 min 731 W/m 15,8 km/h (3 Bft) 97,62 %
25.08.2018 13:34 17,7 C 18,3 C 16,1 C 67 % 1009,3 hPa 0,0 l/m 2 min 0 min 835 W/m 11,3 km/h (2 Bft) 97,92 %
25.08.2018 13:36 17,8 C 18,9 C 16,7 C 67 % 1009,2 hPa 0,0 l/m 2 min 0 min 888 W/m 11,3 km/h (2 Bft) 100,00 %
25.08.2018 13:38 17,8 C 18,9 C 16,7 C 67 % 1009,3 hPa 0,0 l/m 2 min 0 min 663 W/m 11,3 km/h (2 Bft) 100,00 %
25.08.2018 13:40 17,9 C 18,3 C 16,7 C 65 % 1009,4 hPa 0,0 l/m 2 min 0 min 436 W/m 11,3 km/h (2 Bft) 100,00 %
25.08.2018 13:42 17,9 C 18,9 C 16,7 C 65 % 1009,3 hPa 0,0 l/m 2 min 0 min 423 W/m 15,8 km/h (3 Bft) 100,00 %
25.08.2018 13:44 17,9 C 18,3 C 16,1 C 65 % 1009,3 hPa 0,0 l/m 2 min 0 min 385 W/m 13,5 km/h (3 Bft) 100,00 %
25.08.2018 13:46 17,9 C 17,8 C 16,1 C 64 % 1009,4 hPa 0,0 l/m 0 min 0 min 318 W/m 11,3 km/h (2 Bft) 100,00 %
25.08.2018 13:48 17,8 C 17,8 C 16,1 C 64 % 1009,2 hPa 0,0 l/m 0 min 0 min 296 W/m 13,5 km/h (3 Bft) 100,00 %
25.08.2018 13:50 17,8 C 17,2 C 16,1 C 64 % 1009,3 hPa 0,0 l/m 0 min 2 min 236 W/m 9,0 km/h (2 Bft) 100,00 %
25.08.2018 13:52 17,7 C 16,7 C 15,6 C 65 % 1009,3 hPa 0,0 l/m 0 min 0 min 208 W/m 9,0 km/h (2 Bft) 100,00 %
25.08.2018 13:54 17,7 C 16,7 C 15,6 C 66 % 1009,3 hPa 0,0 l/m 0 min 0 min 214 W/m 6,8 km/h (2 Bft) 100,00 %
25.08.2018 13:56 17,6 C 16,7 C 15,6 C 66 % 1009,3 hPa 0,0 l/m 0 min 0 min 237 W/m 6,8 km/h (2 Bft) 100,00 %
25.08.2018 13:58 17,6 C 16,7 C 15,6 C 66 % 1009,2 hPa 0,0 l/m 0 min 0 min 279 W/m 6,8 km/h (2 Bft) 97,92 %
25.08.2018 14:00 17,5 C 17,2 C 16,1 C 67 % 1009,2 hPa 0,0 l/m 0 min 0 min 361 W/m 9,0 km/h (2 Bft) 93,75 %
25.08.2018 14:02 17,5 C 17,8 C 16,1 C 67 % 1009,2 hPa 0,0 l/m 0 min 0 min 362 W/m 9,0 km/h (2 Bft) 95,74 %
25.08.2018 14:04 17,4 C 17,8 C 16,1 C 67 % 1009,3 hPa 0,0 l/m 0 min 0 min 320 W/m 11,3 km/h (2 Bft) 100,00 %
25.08.2018 14:06 17,4 C 17,2 C 16,1 C 66 % 1009,3 hPa 0,0 l/m 0 min 0 min 287 W/m 11,3 km/h (2 Bft) 97,87 %
25.08.2018 14:08 17,4 C 17,2 C 16,1 C 65 % 1009,4 hPa 0,0 l/m 0 min 0 min 218 W/m 11,3 km/h (2 Bft) 97,87 %
25.08.2018 14:10 17,4 C 17,2 C 16,1 C 66 % 1009,3 hPa 0,0 l/m 0 min 0 min 213 W/m 9,0 km/h (2 Bft) 97,87 %
25.08.2018 14:12 17,3 C 17,2 C 16,1 C 67 % 1009,4 hPa 0,0 l/m 0 min 0 min 223 W/m 11,3 km/h (2 Bft) 97,83 %
25.08.2018 14:14 17,3 C 17,8 C 16,1 C 67 % 1009,4 hPa 0,0 l/m 0 min 0 min 232 W/m 18,0 km/h (3 Bft) 97,87 %
25.08.2018 14:16 17,3 C 17,2 C 15,6 C 67 % 1009,5 hPa 0,0 l/m 0 min 0 min 186 W/m 9,0 km/h (2 Bft) 97,62 %
25.08.2018 14:18 17,3 C 16,7 C 15,6 C 66 % 1009,4 hPa 0,0 l/m 0 min 0 min 210 W/m 9,0 km/h (2 Bft) 93,62 %
25.08.2018 14:20 17,2 C 17,2 C 16,1 C 68 % 1009,5 hPa 0,0 l/m 2 min 0 min 517 W/m 6,8 km/h (2 Bft) 97,87 %
25.08.2018 14:22 17,3 C 18,3 C 16,1 C 69 % 1009,5 hPa 0,0 l/m 2 min 0 min 989 W/m 11,3 km/h (2 Bft) 98,28 %
25.08.2018 14:24 17,3 C 18,9 C 16,7 C 68 % 1009,4 hPa 0,0 l/m 2 min 0 min 1005 W/m 6,8 km/h (2 Bft) 97,22 %
25.08.2018 14:26 17,4 C 18,9 C 16,7 C 69 % 1009,5 hPa 0,0 l/m 2 min 0 min 1005 W/m 6,8 km/h (2 Bft) 97,92 %
25.08.2018 14:28 17,5 C 19,4 C 16,7 C 69 % 1009,5 hPa 0,0 l/m 2 min 0 min 998 W/m 6,8 km/h (2 Bft) 97,87 %
25.08.2018 14:30 17,6 C 20,0 C 17,2 C 69 % 1009,5 hPa 0,0 l/m 2 min 0 min 1022 W/m 6,8 km/h (2 Bft) 97,96 %
25.08.2018 14:32 17,7 C 20,0 C 17,2 C 70 % 1009,5 hPa 0,0 l/m 2 min 0 min 1026 W/m 11,3 km/h (2 Bft) 97,87 %
25.08.2018 14:34 17,8 C 20,0 C 17,2 C 69 % 1009,4 hPa 0,0 l/m 2 min 0 min 965 W/m 13,5 km/h (3 Bft) 95,74 %
25.08.2018 14:36 18,0 C 20,0 C 17,8 C 70 % 1009,5 hPa 0,0 l/m 2 min 0 min 968 W/m 9,0 km/h (2 Bft) 95,83 %
25.08.2018 14:38 18,1 C 20,0 C 17,8 C 69 % 1009,5 hPa 0,0 l/m 2 min 0 min 980 W/m 15,8 km/h (3 Bft) 97,87 %
25.08.2018 14:40 18,2 C 20,0 C 17,8 C 68 % 1009,5 hPa 0,0 l/m 2 min 0 min 988 W/m 6,8 km/h (2 Bft) 97,87 %
25.08.2018 14:42 18,4 C 20,0 C 17,8 C 67 % 1009,6 hPa 0,0 l/m 2 min 0 min 964 W/m 13,5 km/h (3 Bft) 100,00 %
25.08.2018 14:44 18,5 C 19,4 C 17,8 C 66 % 1009,6 hPa 0,0 l/m 2 min 0 min 896 W/m 20,3 km/h (4 Bft) 100,00 %
25.08.2018 14:46 18,6 C 19,4 C 17,2 C 66 % 1009,5 hPa 0,0 l/m 2 min 0 min 824 W/m 13,5 km/h (3 Bft) 97,56 %
25.08.2018 14:48 18,6 C 20,0 C 17,2 C 66 % 1009,5 hPa 0,0 l/m 2 min 0 min 814 W/m 9,0 km/h (2 Bft) 100,00 %
25.08.2018 14:50 18,7 C 19,4 C 17,2 C 65 % 1009,6 hPa 0,0 l/m 2 min 0 min 831 W/m 15,8 km/h (3 Bft) 100,00 %
25.08.2018 14:52 18,7 C 19,4 C 17,2 C 65 % 1009,5 hPa 0,0 l/m 2 min 0 min 805 W/m 11,3 km/h (2 Bft) 97,96 %
25.08.2018 14:54 18,8 C 18,9 C 17,2 C 65 % 1009,6 hPa 0,0 l/m 2 min 0 min 726 W/m 11,3 km/h (2 Bft) 97,87 %
25.08.2018 14:56 18,8 C 18,3 C 17,2 C 66 % 1009,7 hPa 0,0 l/m 2 min 0 min 454 W/m 9,0 km/h (2 Bft) 100,00 %
25.08.2018 14:58 18,7 C 17,2 C 16,7 C 65 % 1009,8 hPa 0,0 l/m 0 min 0 min 103 W/m 11,3 km/h (2 Bft) 100,00 %
25.08.2018 15:00 18,6 C 16,7 C 16,1 C 65 % 1009,8 hPa 0,0 l/m 0 min 0 min 125 W/m 11,3 km/h (2 Bft) 100,00 %
25.08.2018 15:02 18,4 C 16,7 C 16,1 C 65 % 1009,7 hPa 0,0 l/m 0 min 0 min 125 W/m 13,5 km/h (3 Bft) 97,92 %
25.08.2018 15:04 18,3 C 17,2 C 16,1 C 66 % 1009,7 hPa 0,0 l/m 0 min 0 min 219 W/m 9,0 km/h (2 Bft) 100,00 %
25.08.2018 15:06 18,3 C 18,3 C 16,7 C 67 % 1009,5 hPa 0,0 l/m 2 min 0 min 745 W/m 11,3 km/h (2 Bft) 100,00 %
25.08.2018 15:08 18,3 C 18,3 C 16,7 C 67 % 1009,7 hPa 0,0 l/m 2 min 0 min 766 W/m 9,0 km/h (2 Bft) 100,00 %
25.08.2018 15:10 18,3 C 18,3 C 16,7 C 68 % 1009,6 hPa 0,0 l/m 2 min 0 min 697 W/m 11,3 km/h (2 Bft) 100,00 %
25.08.2018 15:12 18,2 C 18,3 C 16,7 C 67 % 1009,6 hPa 0,0 l/m 2 min 0 min 528 W/m 11,3 km/h (2 Bft) 97,92 %
25.08.2018 15:14 18,2 C 18,3 C 16,7 C 66 % 1009,7 hPa 0,0 l/m 2 min 0 min 805 W/m 11,3 km/h (2 Bft) 100,00 %
25.08.2018 15:16 18,2 C 18,3 C 16,7 C 65 % 1009,7 hPa 0,0 l/m 2 min 0 min 842 W/m 15,8 km/h (3 Bft) 100,00 %
25.08.2018 15:18 18,2 C 18,3 C 16,7 C 64 % 1009,8 hPa 0,0 l/m 2 min 0 min 862 W/m 13,5 km/h (3 Bft) 97,92 %
25.08.2018 15:20 18,2 C 18,3 C 16,7 C 63 % 1009,8 hPa 0,0 l/m 2 min 0 min 858 W/m 13,5 km/h (3 Bft) 100,00 %
25.08.2018 15:22 18,2 C 18,3 C 16,7 C 63 % 1009,8 hPa 0,0 l/m 2 min 0 min 847 W/m 11,3 km/h (2 Bft) 100,00 %
25.08.2018 15:24 18,2 C 18,3 C 16,7 C 62 % 1009,9 hPa 0,0 l/m 2 min 0 min 858 W/m 20,3 km/h (4 Bft) 100,00 %
25.08.2018 15:26 18,1 C 18,3 C 16,7 C 63 % 1009,8 hPa 0,0 l/m 2 min 0 min 796 W/m 15,8 km/h (3 Bft) 97,87 %
25.08.2018 15:28 18,1 C 17,8 C 16,7 C 62 % 1009,8 hPa 0,0 l/m 2 min 0 min 796 W/m 13,5 km/h (3 Bft) 97,87 %
25.08.2018 15:30 18,1 C 17,8 C 16,7 C 63 % 1009,8 hPa 0,0 l/m 2 min 0 min 812 W/m 22,5 km/h (4 Bft) 97,87 %
25.08.2018 15:32 18,1 C 17,8 C 16,7 C 64 % 1009,9 hPa 0,0 l/m 0 min 0 min 238 W/m 11,3 km/h (2 Bft) 100,00 %
25.08.2018 15:34 18,0 C 17,2 C 16,1 C 64 % 1009,8 hPa 0,0 l/m 0 min 0 min 183 W/m 13,5 km/h (3 Bft) 97,87 %
25.08.2018 15:36 17,9 C 16,7 C 16,1 C 64 % 1009,9 hPa 0,0 l/m 0 min 0 min 173 W/m 11,3 km/h (2 Bft) 95,74 %
25.08.2018 15:38 17,9 C 15,6 C 15,6 C 65 % 1010,0 hPa 0,0 l/m 0 min 2 min 164 W/m 11,3 km/h (2 Bft) 95,74 %
25.08.2018 15:40 17,7 C 15,6 C 15,6 C 66 % 1010,0 hPa 0,0 l/m 0 min 2 min 186 W/m 13,5 km/h (3 Bft) 93,62 %
25.08.2018 15:42 17,6 C 16,1 C 15,6 C 66 % 1010,0 hPa 0,0 l/m 0 min 2 min 232 W/m 11,3 km/h (2 Bft) 95,24 %
25.08.2018 15:44 17,4 C 16,1 C 15,6 C 65 % 1010,0 hPa 0,0 l/m 0 min 0 min 250 W/m 11,3 km/h (2 Bft) 97,87 %
25.08.2018 15:46 17,3 C 16,7 C 15,6 C 65 % 1010,0 hPa 0,0 l/m 0 min 0 min 238 W/m 15,8 km/h (3 Bft) 93,75 %
25.08.2018 15:48 17,2 C 16,7 C 15,6 C 64 % 1010,1 hPa 0,0 l/m 0 min 0 min 225 W/m 13,5 km/h (3 Bft) 95,83 %
25.08.2018 15:50 17,1 C 16,1 C 15,6 C 63 % 1010,0 hPa 0,0 l/m 0 min 0 min 197 W/m 13,5 km/h (3 Bft) 95,83 %
25.08.2018 15:52 17,0 C 16,1 C 15,0 C 63 % 1010,1 hPa 0,0 l/m 0 min 0 min 179 W/m 11,3 km/h (2 Bft) 95,74 %
25.08.2018 15:54 16,9 C 16,1 C 15,0 C 65 % 1010,1 hPa 0,0 l/m 0 min 0 min 178 W/m 9,0 km/h (2 Bft) 95,83 %
25.08.2018 15:56 16,8 C 16,1 C 15,0 C 65 % 1010,2 hPa 0,0 l/m 0 min 0 min 183 W/m 11,3 km/h (2 Bft) 95,65 %
25.08.2018 15:58 16,8 C 16,1 C 15,0 C 65 % 1010,3 hPa 0,0 l/m 0 min 0 min 190 W/m 13,5 km/h (3 Bft) 95,74 %
25.08.2018 16:00 16,7 C 16,1 C 15,0 C 66 % 1010,3 hPa 0,0 l/m 0 min 0 min 233 W/m 11,3 km/h (2 Bft) 96,00 %
25.08.2018 16:02 16,7 C 16,1 C 15,0 C 67 % 1010,2 hPa 0,0 l/m 0 min 0 min 247 W/m 9,0 km/h (2 Bft) 95,74 %
25.08.2018 16:04 16,6 C 16,1 C 15,6 C 68 % 1010,3 hPa 0,0 l/m 0 min 0 min 276 W/m 9,0 km/h (2 Bft) 93,62 %
25.08.2018 16:06 16,6 C 16,7 C 15,0 C 68 % 1010,3 hPa 0,0 l/m 0 min 0 min 284 W/m 11,3 km/h (2 Bft) 95,65 %
25.08.2018 16:08 16,6 C 16,7 C 15,6 C 69 % 1010,2 hPa 0,0 l/m 2 min 0 min 313 W/m 15,8 km/h (3 Bft) 95,24 %
25.08.2018 16:10 16,6 C 17,2 C 15,6 C 70 % 1010,2 hPa 0,0 l/m 2 min 0 min 424 W/m 13,5 km/h (3 Bft) 95,83 %
25.08.2018 16:12 16,6 C 17,8 C 16,1 C 70 % 1010,2 hPa 0,0 l/m 2 min 0 min 397 W/m 9,0 km/h (2 Bft) 95,74 %
25.08.2018 16:14 16,7 C 18,3 C 16,1 C 70 % 1010,3 hPa 0,0 l/m 2 min 0 min 324 W/m 9,0 km/h (2 Bft) 95,83 %
25.08.2018 16:16 16,8 C 18,9 C 16,7 C 71 % 1010,4 hPa 0,0 l/m 2 min 0 min 368 W/m 13,5 km/h (3 Bft) 93,75 %
25.08.2018 16:18 16,9 C 18,9 C 16,7 C 71 % 1010,3 hPa 0,0 l/m 2 min 0 min 357 W/m 9,0 km/h (2 Bft) 93,48 %
25.08.2018 16:20 17,0 C 18,3 C 16,7 C 70 % 1010,4 hPa 0,0 l/m 0 min 0 min 281 W/m 18,0 km/h (3 Bft) 95,74 %
25.08.2018 16:22 17,1 C 17,8 C 16,1 C 70 % 1010,3 hPa 0,0 l/m 0 min 0 min 188 W/m 6,8 km/h (2 Bft) 93,88 %
25.08.2018 16:24 17,1 C 17,2 C 16,1 C 70 % 1010,4 hPa 0,0 l/m 0 min 0 min 115 W/m 18,0 km/h (3 Bft) 95,74 %
25.08.2018 16:26 17,1 C 16,7 C 15,6 C 69 % 1010,6 hPa 0,0 l/m 0 min 0 min 78 W/m 22,5 km/h (4 Bft) 93,75 %
25.08.2018 16:28 17,0 C 16,1 C 15,6 C 68 % 1010,5 hPa 0,0 l/m 0 min 0 min 47 W/m 15,8 km/h (3 Bft) 97,87 %
25.08.2018 16:30 17,0 C 15,6 C 15,0 C 69 % 1010,5 hPa 0,0 l/m 0 min 2 min 36 W/m 18,0 km/h (3 Bft) 97,83 %
25.08.2018 16:32 16,9 C 15,0 C 15,0 C 70 % 1010,6 hPa 0,0 l/m 0 min 2 min 33 W/m 13,5 km/h (3 Bft) 89,19 %
25.08.2018 16:34 16,8 C 13,9 C 14,4 C 72 % 1010,6 hPa 0,0 l/m 0 min 2 min 37 W/m 11,3 km/h (2 Bft) 95,74 %
25.08.2018 16:36 16,7 C 13,9 C 13,9 C 73 % 1010,6 hPa 0,0 l/m 0 min 2 min 45 W/m 6,8 km/h (2 Bft) 93,75 %
25.08.2018 16:38 16,6 C 13,3 C 13,3 C 73 % 1010,7 hPa 0,0 l/m 0 min 2 min 57 W/m 11,3 km/h (2 Bft) 93,75 %
25.08.2018 16:40 16,4 C 13,3 C 13,9 C 74 % 1010,7 hPa 0,0 l/m 0 min 2 min 72 W/m 13,5 km/h (3 Bft) 95,83 %
25.08.2018 16:42 16,3 C 13,3 C 13,9 C 74 % 1010,6 hPa 0,0 l/m 0 min 2 min 87 W/m 11,3 km/h (2 Bft) 97,87 %
25.08.2018 16:44 16,2 C 13,3 C 13,9 C 74 % 1010,6 hPa 0,0 l/m 0 min 2 min 104 W/m 6,8 km/h (2 Bft) 97,87 %
25.08.2018 16:46 16,1 C 13,9 C 13,9 C 75 % 1010,6 hPa 0,0 l/m 0 min 2 min 116 W/m 6,8 km/h (2 Bft) 97,96 %
25.08.2018 16:48 16,1 C 15,0 C 14,4 C 76 % 1010,6 hPa 0,0 l/m 2 min 0 min 612 W/m 9,0 km/h (2 Bft) 95,74 %
25.08.2018 16:50 16,0 C 15,6 C 14,4 C 76 % 1010,6 hPa 0,0 l/m 2 min 0 min 595 W/m 9,0 km/h (2 Bft) 95,83 %
25.08.2018 16:52 15,9 C 15,6 C 14,4 C 77 % 1010,7 hPa 0,0 l/m 0 min 0 min 247 W/m 11,3 km/h (2 Bft) 95,74 %
25.08.2018 16:54 15,9 C 15,6 C 14,4 C 78 % 1010,7 hPa 0,0 l/m 0 min 0 min 221 W/m 6,8 km/h (2 Bft) 97,87 %
25.08.2018 16:56 15,9 C 15,6 C 14,4 C 78 % 1010,7 hPa 0,0 l/m 0 min 0 min 231 W/m 4,5 km/h (1 Bft) 94,59 %
25.08.2018 16:58 15,9 C 16,1 C 15,0 C 77 % 1010,7 hPa 0,0 l/m 2 min 0 min 265 W/m 6,8 km/h (2 Bft) 97,87 %
25.08.2018 17:00 15,8 C 16,7 C 15,0 C 77 % 1010,8 hPa 0,0 l/m 2 min 0 min 570 W/m 4,5 km/h (1 Bft) 98,39 %
25.08.2018 17:02 15,8 C 17,2 C 15,0 C 77 % 1010,8 hPa 0,0 l/m 2 min 0 min 720 W/m 11,3 km/h (2 Bft) 97,87 %
25.08.2018 17:04 15,8 C 17,2 C 15,6 C 77 % 1010,7 hPa 0,0 l/m 2 min 0 min 719 W/m 11,3 km/h (2 Bft) 97,83 %
25.08.2018 17:06 15,9 C 17,8 C 15,6 C 77 % 1010,8 hPa 0,0 l/m 2 min 0 min 688 W/m 6,8 km/h (2 Bft) 97,62 %
25.08.2018 17:08 15,9 C 17,8 C 15,6 C 76 % 1010,9 hPa 0,0 l/m 2 min 0 min 657 W/m 13,5 km/h (3 Bft) 95,74 %
25.08.2018 17:10 16,0 C 17,2 C 15,6 C 75 % 1010,9 hPa 0,0 l/m 2 min 0 min 625 W/m 13,5 km/h (3 Bft) 100,00 %
25.08.2018 17:12 16,1 C 17,8 C 15,6 C 74 % 1010,8 hPa 0,0 l/m 2 min 0 min 593 W/m 9,0 km/h (2 Bft) 96,61 %
25.08.2018 17:14 16,1 C 17,8 C 15,6 C 74 % 1010,9 hPa 0,0 l/m 2 min 0 min 574 W/m 11,3 km/h (2 Bft) 100,00 %
25.08.2018 17:16 16,2 C 17,8 C 15,6 C 74 % 1010,9 hPa 0,0 l/m 2 min 0 min 567 W/m 6,8 km/h (2 Bft) 97,87 %
25.08.2018 17:18 16,2 C 18,3 C 15,6 C 74 % 1010,9 hPa 0,0 l/m 2 min 0 min 578 W/m 9,0 km/h (2 Bft) 98,31 %
25.08.2018 17:20 16,3 C 17,8 C 16,1 C 74 % 1010,9 hPa 0,0 l/m 2 min 0 min 572 W/m 9,0 km/h (2 Bft) 100,00 %
25.08.2018 17:22 16,4 C 17,8 C 16,1 C 74 % 1010,8 hPa 0,0 l/m 2 min 0 min 480 W/m 11,3 km/h (2 Bft) 100,00 %
25.08.2018 17:24 16,4 C 17,8 C 16,1 C 74 % 1010,8 hPa 0,0 l/m 2 min 0 min 528 W/m 6,8 km/h (2 Bft) 100,00 %
25.08.2018 17:26 16,5 C 17,8 C 16,1 C 74 % 1010,9 hPa 0,0 l/m 2 min 0 min 591 W/m 6,8 km/h (2 Bft) 97,83 %
25.08.2018 17:28 16,6 C 17,8 C 16,1 C 73 % 1011,0 hPa 0,0 l/m 2 min 0 min 591 W/m 11,3 km/h (2 Bft) 100,00 %
25.08.2018 17:30 16,7 C 17,2 C 16,1 C 72 % 1011,0 hPa 0,0 l/m 2 min 0 min 499 W/m 11,3 km/h (2 Bft) 98,28 %
25.08.2018 17:32 16,7 C 17,2 C 16,1 C 70 % 1011,0 hPa 0,0 l/m 2 min 0 min 500 W/m 18,0 km/h (3 Bft) 100,00 %
25.08.2018 17:34 16,7 C 17,2 C 16,1 C 68 % 1011,1 hPa 0,0 l/m 2 min 0 min 502 W/m 20,3 km/h (4 Bft) 100,00 %
25.08.2018 17:36 16,8 C 17,2 C 16,1 C 67 % 1011,0 hPa 0,0 l/m 2 min 0 min 506 W/m 15,8 km/h (3 Bft) 100,00 %
25.08.2018 17:38 16,8 C 17,2 C 16,1 C 67 % 1011,0 hPa 0,0 l/m 2 min 0 min 502 W/m 13,5 km/h (3 Bft) 100,00 %
25.08.2018 17:40 16,8 C 17,2 C 15,6 C 66 % 1011,1 hPa 0,0 l/m 2 min 0 min 513 W/m 18,0 km/h (3 Bft) 100,00 %
25.08.2018 17:42 16,9 C 17,2 C 15,6 C 66 % 1011,1 hPa 0,0 l/m 2 min 0 min 544 W/m 13,5 km/h (3 Bft) 100,00 %
25.08.2018 17:44 16,9 C 16,7 C 15,6 C 66 % 1011,2 hPa 0,0 l/m 2 min 0 min 419 W/m 15,8 km/h (3 Bft) 100,00 %
25.08.2018 17:46 16,9 C 16,7 C 15,6 C 66 % 1011,1 hPa 0,0 l/m 0 min 0 min 110 W/m 11,3 km/h (2 Bft) 100,00 %
25.08.2018 17:48 16,9 C 16,1 C 15,6 C 66 % 1011,2 hPa 0,0 l/m 0 min 0 min 88 W/m 11,3 km/h (2 Bft) 100,00 %
25.08.2018 17:50 16,8 C 15,6 C 15,0 C 66 % 1011,2 hPa 0,0 l/m 0 min 0 min 74 W/m 18,0 km/h (3 Bft) 100,00 %
25.08.2018 17:52 16,8 C 15,6 C 15,0 C 65 % 1011,2 hPa 0,0 l/m 0 min 0 min 70 W/m 6,8 km/h (2 Bft) 100,00 %
25.08.2018 17:54 16,7 C 15,6 C 15,0 C 65 % 1011,3 hPa 0,0 l/m 0 min 0 min 76 W/m 15,8 km/h (3 Bft) 97,92 %
25.08.2018 17:56 16,6 C 15,6 C 15,0 C 66 % 1011,3 hPa 0,0 l/m 0 min 0 min 88 W/m 13,5 km/h (3 Bft) 97,92 %
25.08.2018 17:58 16,5 C 15,6 C 15,0 C 66 % 1011,2 hPa 0,0 l/m 0 min 0 min 113 W/m 11,3 km/h (2 Bft) 97,92 %
25.08.2018 18:00 16,4 C 16,1 C 15,0 C 66 % 1011,2 hPa 0,0 l/m 2 min 0 min 349 W/m 6,8 km/h (2 Bft) 100,00 %
25.08.2018 18:02 16,4 C 16,7 C 15,0 C 67 % 1011,3 hPa 0,0 l/m 2 min 0 min 511 W/m 6,8 km/h (2 Bft) 100,00 %
25.08.2018 18:04 16,4 C 16,7 C 15,6 C 67 % 1011,2 hPa 0,0 l/m 2 min 0 min 505 W/m 11,3 km/h (2 Bft) 100,00 %
25.08.2018 18:06 16,5 C 17,2 C 15,6 C 67 % 1011,3 hPa 0,0 l/m 2 min 0 min 481 W/m 11,3 km/h (2 Bft) 100,00 %
25.08.2018 18:08 16,5 C 17,2 C 15,6 C 67 % 1011,3 hPa 0,0 l/m 2 min 0 min 461 W/m 6,8 km/h (2 Bft) 100,00 %
25.08.2018 18:10 16,6 C 17,2 C 15,6 C 67 % 1011,3 hPa 0,0 l/m 2 min 0 min 428 W/m 13,5 km/h (3 Bft) 100,00 %
25.08.2018 18:12 16,6 C 17,2 C 15,6 C 67 % 1011,4 hPa 0,0 l/m 2 min 0 min 413 W/m 6,8 km/h (2 Bft) 100,00 %
25.08.2018 18:14 16,7 C 17,2 C 16,1 C 67 % 1011,2 hPa 0,0 l/m 2 min 0 min 412 W/m 11,3 km/h (2 Bft) 100,00 %
25.08.2018 18:16 16,7 C 17,2 C 16,1 C 67 % 1011,2 hPa 0,0 l/m 2 min 0 min 419 W/m 6,8 km/h (2 Bft) 100,00 %
25.08.2018 18:18 16,7 C 17,2 C 16,1 C 67 % 1011,2 hPa 0,0 l/m 2 min 0 min 422 W/m 9,0 km/h (2 Bft) 100,00 %
25.08.2018 18:20 16,8 C 17,2 C 16,1 C 67 % 1011,3 hPa 0,0 l/m 2 min 0 min 401 W/m 9,0 km/h (2 Bft) 100,00 %
25.08.2018 18:22 16,8 C 17,2 C 16,1 C 67 % 1011,3 hPa 0,0 l/m 2 min 0 min 377 W/m 11,3 km/h (2 Bft) 97,87 %
25.08.2018 18:24 16,9 C 17,2 C 16,1 C 66 % 1011,3 hPa 0,0 l/m 2 min 0 min 366 W/m 13,5 km/h (3 Bft) 100,00 %
25.08.2018 18:26 16,9 C 17,2 C 16,1 C 67 % 1011,3 hPa 0,0 l/m 2 min 0 min 357 W/m 11,3 km/h (2 Bft) 97,87 %
25.08.2018 18:28 16,9 C 16,7 C 15,6 C 67 % 1011,4 hPa 0,0 l/m 2 min 0 min 357 W/m 9,0 km/h (2 Bft) 97,83 %
25.08.2018 18:30 16,9 C 16,7 C 15,6 C 66 % 1011,4 hPa 0,0 l/m 2 min 0 min 266 W/m 11,3 km/h (2 Bft) 97,87 %
25.08.2018 18:32 16,9 C 16,7 C 15,6 C 66 % 1011,3 hPa 0,0 l/m 2 min 0 min 153 W/m 9,0 km/h (2 Bft) 97,73 %
25.08.2018 18:34 17,0 C 16,7 C 16,1 C 66 % 1011,3 hPa 0,0 l/m 0 min 0 min 131 W/m 13,5 km/h (3 Bft) 97,87 %
25.08.2018 18:36 17,0 C 17,2 C 16,1 C 67 % 1011,3 hPa 0,0 l/m 0 min 0 min 127 W/m 18,0 km/h (3 Bft) 97,92 %
25.08.2018 18:38 17,0 C 17,2 C 16,1 C 67 % 1011,5 hPa 0,0 l/m 0 min 0 min 128 W/m 15,8 km/h (3 Bft) 97,83 %
25.08.2018 18:40 17,0 C 17,2 C 16,1 C 66 % 1011,5 hPa 0,0 l/m 0 min 0 min 116 W/m 13,5 km/h (3 Bft) 95,83 %
25.08.2018 18:42 17,0 C 16,7 C 16,1 C 66 % 1011,5 hPa 0,0 l/m 2 min 0 min 153 W/m 9,0 km/h (2 Bft) 97,92 %
25.08.2018 18:44 17,1 C 16,7 C 16,1 C 66 % 1011,4 hPa 0,0 l/m 0 min 0 min 136 W/m 13,5 km/h (3 Bft) 95,74 %
25.08.2018 18:46 17,1 C 16,7 C 16,1 C 66 % 1011,4 hPa 0,0 l/m 0 min 0 min 52 W/m 15,8 km/h (3 Bft) 97,87 %
25.08.2018 18:48 17,0 C 16,7 C 15,6 C 65 % 1011,4 hPa 0,0 l/m 0 min 0 min 60 W/m 11,3 km/h (2 Bft) 97,87 %
25.08.2018 18:50 17,0 C 16,7 C 15,6 C 66 % 1011,5 hPa 0,0 l/m 0 min 0 min 68 W/m 11,3 km/h (2 Bft) 93,48 %
25.08.2018 18:52 17,0 C 16,7 C 15,6 C 66 % 1011,4 hPa 0,0 l/m 0 min 0 min 72 W/m 13,5 km/h (3 Bft) 91,49 %
25.08.2018 18:54 16,9 C 16,1 C 15,6 C 66 % 1011,5 hPa 0,0 l/m 0 min 0 min 61 W/m 6,8 km/h (2 Bft) 95,24 %
25.08.2018 18:56 16,9 C 16,1 C 15,6 C 66 % 1011,5 hPa 0,0 l/m 0 min 0 min 53 W/m 9,0 km/h (2 Bft) 95,74 %
25.08.2018 18:58 16,9 C 15,6 C 15,6 C 66 % 1011,5 hPa 0,0 l/m 0 min 0 min 53 W/m 6,8 km/h (2 Bft) 95,83 %
25.08.2018 19:00 16,8 C 15,6 C 15,6 C 66 % 1011,5 hPa 0,0 l/m 0 min 0 min 52 W/m 9,0 km/h (2 Bft) 94,00 %
25.08.2018 19:02 16,8 C 15,6 C 15,0 C 67 % 1011,5 hPa 0,0 l/m 0 min 0 min 53 W/m 6,8 km/h (2 Bft) 93,62 %
25.08.2018 19:04 16,8 C 15,6 C 15,0 C 67 % 1011,5 hPa 0,0 l/m 0 min 0 min 67 W/m 11,3 km/h (2 Bft) 93,62 %
25.08.2018 19:06 16,7 C 15,6 C 15,0 C 67 % 1011,6 hPa 0,0 l/m 0 min 0 min 77 W/m 11,3 km/h (2 Bft) 93,62 %
25.08.2018 19:08 16,7 C 15,6 C 15,0 C 68 % 1011,6 hPa 0,0 l/m 0 min 0 min 66 W/m 6,8 km/h (2 Bft) 91,49 %
25.08.2018 19:10 16,6 C 15,6 C 15,0 C 67 % 1011,7 hPa 0,0 l/m 0 min 0 min 62 W/m 13,5 km/h (3 Bft) 95,24 %
25.08.2018 19:12 16,6 C 15,6 C 15,0 C 68 % 1011,7 hPa 0,0 l/m 0 min 0 min 62 W/m 9,0 km/h (2 Bft) 91,67 %
25.08.2018 19:14 16,6 C 16,1 C 15,0 C 68 % 1011,8 hPa 0,0 l/m 0 min 0 min 81 W/m 9,0 km/h (2 Bft) 93,62 %
25.08.2018 19:16 16,5 C 16,1 C 15,0 C 68 % 1011,9 hPa 0,0 l/m 0 min 0 min 78 W/m 11,3 km/h (2 Bft) 95,83 %
25.08.2018 19:18 16,5 C 16,1 C 15,0 C 68 % 1011,8 hPa 0,0 l/m 2 min 0 min 96 W/m 11,3 km/h (2 Bft) 95,74 %
25.08.2018 19:20 16,4 C 16,1 C 15,0 C 68 % 1011,9 hPa 0,0 l/m 2 min 0 min 123 W/m 15,8 km/h (3 Bft) 95,83 %
25.08.2018 19:22 16,4 C 16,1 C 15,0 C 68 % 1011,8 hPa 0,0 l/m 2 min 0 min 132 W/m 15,8 km/h (3 Bft) 93,62 %
25.08.2018 19:24 16,4 C 15,6 C 15,0 C 66 % 1011,9 hPa 0,0 l/m 2 min 0 min 114 W/m 6,8 km/h (2 Bft) 93,75 %
25.08.2018 19:26 16,3 C 15,6 C 15,0 C 66 % 1011,9 hPa 0,0 l/m 2 min 0 min 86 W/m 6,8 km/h (2 Bft) 93,62 %
25.08.2018 19:28 16,3 C 15,6 C 15,0 C 64 % 1011,9 hPa 0,0 l/m 0 min 0 min 63 W/m 11,3 km/h (2 Bft) 97,87 %
25.08.2018 19:30 16,2 C 15,0 C 14,4 C 64 % 1011,9 hPa 0,0 l/m 0 min 0 min 49 W/m 11,3 km/h (2 Bft) 97,92 %
25.08.2018 19:32 16,2 C 14,4 C 14,4 C 64 % 1012,0 hPa 0,0 l/m 0 min 0 min 41 W/m 9,0 km/h (2 Bft) 95,83 %
25.08.2018 19:34 16,1 C 14,4 C 14,4 C 64 % 1012,0 hPa 0,0 l/m 0 min 0 min 41 W/m 9,0 km/h (2 Bft) 95,74 %
25.08.2018 19:36 15,9 C 14,4 C 13,9 C 64 % 1012,0 hPa 0,0 l/m 0 min 0 min 42 W/m 11,3 km/h (2 Bft) 95,65 %
25.08.2018 19:38 15,9 C 14,4 C 13,9 C 64 % 1012,0 hPa 0,0 l/m 0 min 0 min 42 W/m 9,0 km/h (2 Bft) 97,87 %
25.08.2018 19:40 15,8 C 14,4 C 13,9 C 64 % 1012,0 hPa 0,0 l/m 0 min 0 min 39 W/m 11,3 km/h (2 Bft) 97,87 %
25.08.2018 19:42 15,7 C 14,4 C 13,9 C 64 % 1012,0 hPa 0,0 l/m 0 min 0 min 36 W/m 4,5 km/h (1 Bft) 91,49 %
25.08.2018 19:44 15,7 C 13,9 C 13,9 C 64 % 1011,9 hPa 0,0 l/m 0 min 0 min 33 W/m 13,5 km/h (3 Bft) 97,67 %
25.08.2018 19:46 15,6 C 13,9 C 13,9 C 64 % 1012,1 hPa 0,0 l/m 0 min 0 min 33 W/m 11,3 km/h (2 Bft) 97,96 %
25.08.2018 19:48 15,6 C 13,9 C 13,9 C 65 % 1011,9 hPa 0,0 l/m 0 min 0 min 32 W/m 9,0 km/h (2 Bft) 100,00 %
25.08.2018 19:50 15,5 C 13,9 C 13,9 C 65 % 1012,0 hPa 0,0 l/m 0 min 0 min 33 W/m 9,0 km/h (2 Bft) 100,00 %
25.08.2018 19:52 15,4 C 13,9 C 13,9 C 65 % 1012,1 hPa 0,0 l/m 0 min 0 min 36 W/m 9,0 km/h (2 Bft) 100,00 %
25.08.2018 19:54 15,3 C 13,9 C 13,9 C 66 % 1012,2 hPa 0,0 l/m 0 min 0 min 39 W/m 6,8 km/h (2 Bft) 100,00 %
25.08.2018 19:56 15,3 C 13,9 C 13,9 C 66 % 1012,1 hPa 0,0 l/m 2 min 0 min 46 W/m 9,0 km/h (2 Bft) 100,00 %
25.08.2018 19:58 15,3 C 13,9 C 13,9 C 66 % 1012,1 hPa 0,0 l/m 2 min 0 min 54 W/m 9,0 km/h (2 Bft) 100,00 %
25.08.2018 20:00 15,2 C 13,9 C 13,9 C 66 % 1012,2 hPa 0,0 l/m 2 min 0 min 60 W/m 9,0 km/h (2 Bft) 100,00 %
25.08.2018 20:02 15,2 C 14,4 C 13,9 C 66 % 1012,2 hPa 0,0 l/m 2 min 0 min 62 W/m 6,8 km/h (2 Bft) 100,00 %
25.08.2018 20:04 15,1 C 14,4 C 13,9 C 66 % 1012,2 hPa 0,0 l/m 2 min 0 min 53 W/m 4,5 km/h (1 Bft) 100,00 %
25.08.2018 20:06 15,1 C 14,4 C 13,9 C 67 % 1012,4 hPa 0,0 l/m 2 min 0 min 41 W/m 4,5 km/h (1 Bft) 100,00 %
25.08.2018 20:08 15,1 C 14,4 C 13,9 C 66 % 1012,4 hPa 0,0 l/m 2 min 0 min 31 W/m 4,5 km/h (1 Bft) 100,00 %
25.08.2018 20:10 15,1 C 14,4 C 13,9 C 67 % 1012,4 hPa 0,0 l/m 0 min 0 min 25 W/m 2,3 km/h (1 Bft) 100,00 %
25.08.2018 20:12 15,1 C 14,4 C 13,9 C 67 % 1012,4 hPa 0,0 l/m 0 min 0 min 21 W/m 4,5 km/h (1 Bft) 100,00 %
25.08.2018 20:14 15,0 C 13,9 C 13,9 C 67 % 1012,4 hPa 0,0 l/m 0 min 0 min 18 W/m 4,5 km/h (1 Bft) 100,00 %
25.08.2018 20:16 15,0 C 13,9 C 13,9 C 67 % 1012,4 hPa 0,0 l/m 0 min 0 min 15 W/m 4,5 km/h (1 Bft) 100,00 %
25.08.2018 20:18 14,9 C 13,9 C 13,9 C 67 % 1012,4 hPa 0,0 l/m 0 min 0 min 14 W/m 4,5 km/h (1 Bft) 100,00 %
25.08.2018 20:20 14,9 C 13,9 C 13,9 C 68 % 1012,6 hPa 0,0 l/m 0 min 0 min 13 W/m 4,5 km/h (1 Bft) 100,00 %
25.08.2018 20:22 14,9 C 13,9 C 13,9 C 68 % 1012,5 hPa 0,0 l/m 0 min 0 min 12 W/m 2,3 km/h (1 Bft) 97,87 %
25.08.2018 20:24 14,9 C 13,3 C 13,9 C 68 % 1012,6 hPa 0,0 l/m 0 min 0 min 11 W/m 4,5 km/h (1 Bft) 100,00 %
25.08.2018 20:26 14,8 C 13,3 C 13,9 C 68 % 1012,6 hPa 0,0 l/m 0 min 0 min 9 W/m 2,3 km/h (1 Bft) 100,00 %
25.08.2018 20:28 14,8 C 13,3 C 13,3 C 68 % 1012,6 hPa 0,0 l/m 0 min 0 min 8 W/m 2,3 km/h (1 Bft) 100,00 %
25.08.2018 20:30 14,8 C 13,3 C 13,3 C 69 % 1012,6 hPa 0,0 l/m 0 min 0 min 7 W/m 4,5 km/h (1 Bft) 100,00 %
25.08.2018 20:32 14,8 C 13,3 C 13,3 C 69 % 1012,6 hPa 0,0 l/m 0 min 0 min 6 W/m 4,5 km/h (1 Bft) 100,00 %
25.08.2018 20:34 14,7 C 12,8 C 13,3 C 69 % 1012,7 hPa 0,0 l/m 0 min 0 min 5 W/m 4,5 km/h (1 Bft) 100,00 %
25.08.2018 20:36 14,7 C 12,8 C 13,3 C 69 % 1012,7 hPa 0,0 l/m 0 min 0 min 5 W/m 2,3 km/h (1 Bft) 100,00 %
25.08.2018 20:38 14,7 C 12,8 C 13,3 C 70 % 1012,7 hPa 0,0 l/m 0 min 0 min 0 W/m 2,3 km/h (1 Bft) 100,00 %
25.08.2018 20:40 14,6 C 12,8 C 13,3 C 70 % 1012,7 hPa 0,0 l/m 0 min 0 min 0 W/m 0,0 km/h (0 Bft) 97,87 %
25.08.2018 20:42 14,6 C 12,8 C 13,3 C 70 % 1012,8 hPa 0,0 l/m 0 min 0 min 0 W/m 4,5 km/h (1 Bft) 100,00 %
25.08.2018 20:44 14,6 C 12,8 C 12,8 C 71 % 1012,8 hPa 0,0 l/m 0 min 0 min 0 W/m 2,3 km/h (1 Bft) 100,00 %
25.08.2018 20:46 14,6 C 12,2 C 12,8 C 71 % 1012,8 hPa 0,0 l/m 0 min 0 min 0 W/m 2,3 km/h (1 Bft) 100,00 %
25.08.2018 20:48 14,5 C 12,2 C 12,8 C 72 % 1012,8 hPa 0,0 l/m 0 min 0 min 0 W/m 2,3 km/h (1 Bft) 100,00 %
25.08.2018 20:50 14,4 C 12,2 C 12,8 C 72 % 1012,8 hPa 0,0 l/m 0 min 0 min 0 W/m 2,3 km/h (1 Bft) 100,00 %
25.08.2018 20:52 14,4 C 12,2 C 12,8 C 72 % 1012,8 hPa 0,0 l/m 0 min 0 min 0 W/m 0,0 km/h (0 Bft) 100,00 %
25.08.2018 20:54 14,3 C 12,2 C 12,8 C 72 % 1012,9 hPa 0,0 l/m 0 min 0 min 0 W/m 0,0 km/h (0 Bft) 100,00 %
25.08.2018 20:56 14,3 C 12,2 C 12,8 C 72 % 1012,9 hPa 0,0 l/m 0 min 0 min 0 W/m 0,0 km/h (0 Bft) 100,00 %
25.08.2018 20:58 14,2 C 12,2 C 12,8 C 72 % 1012,9 hPa 0,0 l/m 0 min 0 min 0 W/m 0,0 km/h (0 Bft) 100,00 %
25.08.2018 21:00 14,2 C 12,2 C 12,8 C 72 % 1012,9 hPa 0,0 l/m 0 min 0 min 0 W/m 0,0 km/h (0 Bft) 100,00 %
25.08.2018 21:02 14,2 C 12,2 C 12,8 C 72 % 1012,9 hPa 0,0 l/m 0 min 0 min 0 W/m 0,0 km/h (0 Bft) 100,00 %
25.08.2018 21:04 14,2 C 12,2 C 12,8 C 72 % 1013,0 hPa 0,0 l/m 0 min 0 min 0 W/m 2,3 km/h (1 Bft) 100,00 %
25.08.2018 21:06 14,2 C 12,2 C 12,8 C 73 % 1013,0 hPa 0,0 l/m 0 min 0 min 0 W/m 2,3 km/h (1 Bft) 100,00 %
25.08.2018 21:08 14,1 C 12,2 C 12,8 C 73 % 1012,9 hPa 0,0 l/m 0 min 0 min 0 W/m 2,3 km/h (1 Bft) 97,87 %
25.08.2018 21:10 14,0 C 12,2 C 12,2 C 74 % 1013,0 hPa 0,0 l/m 0 min 0 min 0 W/m 0,0 km/h (0 Bft) 100,00 %
25.08.2018 21:12 14,0 C 12,2 C 12,2 C 74 % 1013,0 hPa 0,0 l/m 0 min 0 min 0 W/m 0,0 km/h (0 Bft) 95,74 %
25.08.2018 21:14 13,9 C 12,2 C 12,2 C 75 % 1013,1 hPa 0,0 l/m 0 min 0 min 0 W/m 0,0 km/h (0 Bft) 97,87 %
25.08.2018 21:16 13,9 C 12,2 C 12,2 C 75 % 1013,1 hPa 0,0 l/m 0 min 0 min 0 W/m 0,0 km/h (0 Bft) 97,87 %
25.08.2018 21:18 13,8 C 12,2 C 12,2 C 75 % 1013,0 hPa 0,0 l/m 0 min 0 min 0 W/m 0,0 km/h (0 Bft) 97,87 %
25.08.2018 21:20 13,8 C 12,2 C 12,2 C 75 % 1013,0 hPa 0,0 l/m 0 min 0 min 0 W/m 2,3 km/h (1 Bft) 97,87 %
25.08.2018 21:22 13,7 C 12,2 C 12,2 C 75 % 1013,1 hPa 0,0 l/m 0 min 0 min 0 W/m 4,5 km/h (1 Bft) 100,00 %
25.08.2018 21:24 13,7 C 12,2 C 12,2 C 75 % 1013,2 hPa 0,0 l/m 0 min 0 min 0 W/m 4,5 km/h (1 Bft) 100,00 %
25.08.2018 21:26 13,7 C 11,7 C 12,2 C 75 % 1013,2 hPa 0,0 l/m 0 min 0 min 0 W/m 2,3 km/h (1 Bft) 97,92 %
25.08.2018 21:28 13,6 C 11,7 C 12,2 C 75 % 1013,2 hPa 0,0 l/m 0 min 0 min 0 W/m 2,3 km/h (1 Bft) 97,87 %
25.08.2018 21:30 13,6 C 12,2 C 12,2 C 75 % 1013,2 hPa 0,0 l/m 0 min 0 min 0 W/m 2,3 km/h (1 Bft) 97,87 %
25.08.2018 21:32 13,5 C 12,2 C 12,8 C 75 % 1013,2 hPa 0,0 l/m 0 min 0 min 0 W/m 6,8 km/h (2 Bft) 97,87 %
25.08.2018 21:34 13,4 C 12,2 C 12,8 C 75 % 1013,2 hPa 0,0 l/m 0 min 0 min 0 W/m 2,3 km/h (1 Bft) 95,83 %
25.08.2018 21:36 13,4 C 11,7 C 12,8 C 75 % 1013,3 hPa 0,0 l/m 0 min 0 min 0 W/m 2,3 km/h (1 Bft) 97,87 %
25.08.2018 21:38 13,4 C 11,7 C 12,8 C 75 % 1013,3 hPa 0,0 l/m 0 min 0 min 0 W/m 2,3 km/h (1 Bft) 97,92 %
25.08.2018 21:40 13,4 C 11,7 C 12,2 C 75 % 1013,3 hPa 0,0 l/m 0 min 0 min 0 W/m 2,3 km/h (1 Bft) 95,83 %
25.08.2018 21:42 13,3 C 11,7 C 12,2 C 76 % 1013,4 hPa 0,0 l/m 0 min 0 min 0 W/m 4,5 km/h (1 Bft) 93,62 %
25.08.2018 21:44 13,3 C 11,7 C 12,2 C 76 % 1013,5 hPa 0,0 l/m 0 min 0 min 0 W/m 2,3 km/h (1 Bft) 97,87 %
25.08.2018 21:46 13,3 C 11,7 C 12,2 C 76 % 1013,5 hPa 0,0 l/m 0 min 0 min 0 W/m 4,5 km/h (1 Bft) 93,48 %
25.08.2018 21:48 13,2 C 11,7 C 12,2 C 76 % 1013,5 hPa 0,0 l/m 0 min 0 min 0 W/m 4,5 km/h (1 Bft) 95,74 %
25.08.2018 21:50 13,2 C 11,7 C 12,2 C 77 % 1013,5 hPa 0,0 l/m 0 min 0 min 0 W/m 4,5 km/h (1 Bft) 95,74 %
25.08.2018 21:52 13,2 C 11,7 C 12,2 C 77 % 1013,4 hPa 0,0 l/m 0 min 0 min 0 W/m 2,3 km/h (1 Bft) 93,62 %
25.08.2018 21:54 13,2 C 11,7 C 12,2 C 77 % 1013,5 hPa 0,0 l/m 0 min 0 min 0 W/m 4,5 km/h (1 Bft) 97,87 %
25.08.2018 21:56 13,1 C 11,7 C 12,2 C 77 % 1013,5 hPa 0,0 l/m 0 min 0 min 0 W/m 4,5 km/h (1 Bft) 95,74 %
25.08.2018 21:58 13,1 C 11,1 C 12,2 C 77 % 1013,5 hPa 0,0 l/m 0 min 0 min 0 W/m 2,3 km/h (1 Bft) 93,48 %
25.08.2018 22:00 13,1 C 11,1 C 12,2 C 77 % 1013,5 hPa 0,0 l/m 0 min 0 min 0 W/m 2,3 km/h (1 Bft) 95,24 %
25.08.2018 22:02 13,1 C 11,1 C 12,2 C 78 % 1013,5 hPa 0,0 l/m 0 min 0 min 0 W/m 0,0 km/h (0 Bft) 96,00 %
25.08.2018 22:04 13,0 C 11,1 C 12,2 C 78 % 1013,5 hPa 0,0 l/m 0 min 0 min 0 W/m 2,3 km/h (1 Bft) 94,00 %
25.08.2018 22:06 13,0 C 11,1 C 11,7 C 79 % 1013,6 hPa 0,0 l/m 0 min 0 min 0 W/m 2,3 km/h (1 Bft) 95,83 %
25.08.2018 22:08 13,0 C 11,1 C 11,7 C 79 % 1013,6 hPa 0,0 l/m 0 min 0 min 0 W/m 2,3 km/h (1 Bft) 93,48 %
25.08.2018 22:10 12,9 C 11,1 C 11,7 C 79 % 1013,6 hPa 0,0 l/m 0 min 0 min 0 W/m 2,3 km/h (1 Bft) 100,00 %
25.08.2018 22:12 12,9 C 11,1 C 11,7 C 79 % 1013,6 hPa 0,0 l/m 0 min 0 min 0 W/m 2,3 km/h (1 Bft) 97,87 %
25.08.2018 22:14 12,9 C 10,6 C 11,7 C 79 % 1013,6 hPa 0,0 l/m 0 min 0 min 0 W/m 4,5 km/h (1 Bft) 97,87 %
25.08.2018 22:16 12,8 C 10,6 C 11,7 C 79 % 1013,7 hPa 0,0 l/m 0 min 0 min 0 W/m 2,3 km/h (1 Bft) 97,62 %
25.08.2018 22:18 12,8 C 11,1 C 11,7 C 80 % 1013,6 hPa 0,0 l/m 0 min 0 min 0 W/m 2,3 km/h (1 Bft) 95,74 %
25.08.2018 22:20 12,8 C 10,6 C 11,7 C 80 % 1013,7 hPa 0,0 l/m 0 min 0 min 0 W/m 0,0 km/h (0 Bft) 93,75 %
25.08.2018 22:22 12,7 C 10,6 C 11,7 C 80 % 1013,7 hPa 0,0 l/m 0 min 0 min 0 W/m 2,3 km/h (1 Bft) 95,83 %
25.08.2018 22:24 12,7 C 10,6 C 11,1 C 80 % 1013,7 hPa 0,0 l/m 0 min 0 min 0 W/m 2,3 km/h (1 Bft) 95,83 %
25.08.2018 22:26 12,7 C 10,6 C 11,7 C 80 % 1013,7 hPa 0,0 l/m 0 min 0 min 0 W/m 2,3 km/h (1 Bft) 95,74 %
25.08.2018 22:28 12,6 C 10,6 C 11,7 C 80 % 1013,8 hPa 0,0 l/m 0 min 0 min 0 W/m 2,3 km/h (1 Bft) 93,75 %
25.08.2018 22:30 12,6 C 10,6 C 11,7 C 80 % 1013,7 hPa 0,0 l/m 0 min 0 min 0 W/m 2,3 km/h (1 Bft) 95,74 %
25.08.2018 22:32 12,6 C 10,6 C 11,7 C 81 % 1013,7 hPa 0,0 l/m 0 min 0 min 0 W/m 2,3 km/h (1 Bft) 95,74 %
25.08.2018 22:34 12,5 C 10,6 C 11,7 C 81 % 1013,7 hPa 0,0 l/m 0 min 0 min 0 W/m 2,3 km/h (1 Bft) 95,74 %
25.08.2018 22:36 12,4 C 11,1 C 11,7 C 81 % 1013,7 hPa 0,0 l/m 0 min 0 min 0 W/m 2,3 km/h (1 Bft) 91,49 %
25.08.2018 22:38 12,4 C 10,6 C 11,1 C 81 % 1013,7 hPa 0,0 l/m 0 min 0 min 0 W/m 2,3 km/h (1 Bft) 97,87 %
25.08.2018 22:40 12,4 C 10,6 C 11,1 C 81 % 1013,7 hPa 0,0 l/m 0 min 0 min 0 W/m 0,0 km/h (0 Bft) 95,74 %
25.08.2018 22:42 12,4 C 10,6 C 11,1 C 81 % 1013,7 hPa 0,0 l/m 0 min 0 min 0 W/m 2,3 km/h (1 Bft) 97,62 %
25.08.2018 22:44 12,3 C 10,6 C 11,1 C 81 % 1013,7 hPa 0,0 l/m 0 min 0 min 0 W/m 2,3 km/h (1 Bft) 97,87 %
25.08.2018 22:46 12,3 C 10,6 C 11,1 C 81 % 1013,8 hPa 0,0 l/m 0 min 0 min 0 W/m 0,0 km/h (0 Bft) 95,74 %
25.08.2018 22:48 12,3 C 10,6 C 11,1 C 81 % 1013,8 hPa 0,0 l/m 0 min 0 min 0 W/m 0,0 km/h (0 Bft) 98,04 %
25.08.2018 22:50 12,2 C 10,6 C 11,1 C 81 % 1013,7 hPa 0,0 l/m 0 min 0 min 0 W/m 0,0 km/h (0 Bft) 95,74 %
25.08.2018 22:52 12,2 C 10,6 C 11,1 C 81 % 1013,8 hPa 0,0 l/m 0 min 0 min 0 W/m 0,0 km/h (0 Bft) 97,87 %
25.08.2018 22:54 12,2 C 10,6 C 11,1 C 81 % 1013,9 hPa 0,0 l/m 0 min 0 min 0 W/m 0,0 km/h (0 Bft) 97,87 %
25.08.2018 22:56 12,1 C 10,6 C 11,1 C 81 % 1013,9 hPa 0,0 l/m 0 min 0 min 0 W/m 0,0 km/h (0 Bft) 97,83 %
25.08.2018 22:58 12,1 C 10,6 C 10,6 C 81 % 1013,9 hPa 0,0 l/m 0 min 0 min 0 W/m 0,0 km/h (0 Bft) 93,62 %
25.08.2018 23:00 12,1 C 10,6 C 11,1 C 81 % 1013,9 hPa 0,0 l/m 0 min 0 min 0 W/m 0,0 km/h (0 Bft) 97,73 %
25.08.2018 23:02 12,1 C 10,6 C 11,1 C 82 % 1013,9 hPa 0,0 l/m 0 min 0 min 0 W/m 2,3 km/h (1 Bft) 97,87 %
25.08.2018 23:04 12,0 C 10,6 C 11,1 C 82 % 1014,0 hPa 0,0 l/m 0 min 0 min 0 W/m 4,5 km/h (1 Bft) 98,00 %
25.08.2018 23:06 12,0 C 10,6 C 11,7 C 82 % 1014,0 hPa 0,0 l/m 0 min 0 min 0 W/m 2,3 km/h (1 Bft) 97,87 %
25.08.2018 23:08 11,9 C 10,6 C 11,7 C 82 % 1014,0 hPa 0,0 l/m 0 min 0 min 0 W/m 0,0 km/h (0 Bft) 95,83 %
25.08.2018 23:10 11,9 C 10,6 C 11,7 C 82 % 1013,9 hPa 0,0 l/m 0 min 0 min 0 W/m 0,0 km/h (0 Bft) 97,87 %
25.08.2018 23:12 11,9 C 10,6 C 11,7 C 83 % 1013,9 hPa 0,0 l/m 0 min 0 min 0 W/m 0,0 km/h (0 Bft) 97,92 %
25.08.2018 23:14 11,9 C 10,6 C 11,1 C 83 % 1013,9 hPa 0,0 l/m 0 min 0 min 0 W/m 2,3 km/h (1 Bft) 97,87 %
25.08.2018 23:16 11,9 C 10,6 C 11,1 C 83 % 1013,9 hPa 0,0 l/m 0 min 0 min 0 W/m 2,3 km/h (1 Bft) 97,14 %
25.08.2018 23:18 11,8 C 10,6 C 11,1 C 83 % 1013,9 hPa 0,0 l/m 0 min 0 min 0 W/m 0,0 km/h (0 Bft) 98,28 %
25.08.2018 23:20 11,8 C 10,6 C 11,1 C 83 % 1013,8 hPa 0,0 l/m 0 min 0 min 0 W/m 0,0 km/h (0 Bft) 97,87 %
25.08.2018 23:22 11,8 C 10,6 C 11,1 C 83 % 1013,8 hPa 0,0 l/m 0 min 0 min 0 W/m 0,0 km/h (0 Bft) 97,67 %
25.08.2018 23:24 11,8 C 10,6 C 11,1 C 83 % 1013,7 hPa 0,0 l/m 0 min 0 min 0 W/m 0,0 km/h (0 Bft) 97,22 %
25.08.2018 23:26 11,8 C 10,6 C 11,1 C 83 % 1013,7 hPa 0,0 l/m 0 min 0 min 0 W/m 0,0 km/h (0 Bft) 96,67 %
25.08.2018 23:28 11,8 C 10,6 C 11,1 C 83 % 1013,8 hPa 0,0 l/m 0 min 0 min 0 W/m 0,0 km/h (0 Bft) 95,83 %
25.08.2018 23:30 11,8 C 10,6 C 11,1 C 83 % 1013,7 hPa 0,0 l/m 0 min 0 min 0 W/m 0,0 km/h (0 Bft) 97,87 %
25.08.2018 23:32 11,7 C 10,6 C 11,1 C 83 % 1013,7 hPa 0,0 l/m 0 min 0 min 0 W/m 0,0 km/h (0 Bft) 100,00 %
25.08.2018 23:34 11,7 C 10,6 C 11,1 C 83 % 1013,8 hPa 0,0 l/m 0 min 0 min 0 W/m 0,0 km/h (0 Bft) 96,55 %
25.08.2018 23:36 11,7 C 10,6 C 10,6 C 84 % 1013,8 hPa 0,0 l/m 0 min 0 min 0 W/m 0,0 km/h (0 Bft) 95,74 %
25.08.2018 23:38 11,7 C 10,6 C 10,6 C 84 % 1013,9 hPa 0,0 l/m 0 min 0 min 0 W/m 0,0 km/h (0 Bft) 94,29 %
25.08.2018 23:40 11,7 C 10,0 C 10,6 C 84 % 1013,9 hPa 0,0 l/m 0 min 0 min 0 W/m 0,0 km/h (0 Bft) 96,30 %
25.08.2018 23:42 11,7 C 10,0 C 10,6 C 85 % 1013,9 hPa 0,0 l/m 0 min 0 min 0 W/m 2,3 km/h (1 Bft) 97,87 %
25.08.2018 23:44 11,7 C 10,0 C 10,6 C 84 % 1013,9 hPa 0,0 l/m 0 min 0 min 0 W/m 0,0 km/h (0 Bft) 100,00 %
25.08.2018 23:46 11,7 C 10,0 C 10,6 C 84 % 1014,0 hPa 0,0 l/m 0 min 0 min 0 W/m 2,3 km/h (1 Bft) 95,83 %
25.08.2018 23:48 11,6 C 10,0 C 10,6 C 84 % 1013,9 hPa 0,0 l/m 0 min 0 min 0 W/m 0,0 km/h (0 Bft) 97,22 %
25.08.2018 23:50 11,6 C 10,6 C 10,6 C 84 % 1013,9 hPa 0,0 l/m 0 min 0 min 0 W/m 0,0 km/h (0 Bft) 95,00 %
25.08.2018 23:52 11,6 C 10,6 C 10,6 C 84 % 1014,0 hPa 0,0 l/m 0 min 0 min 0 W/m 0,0 km/h (0 Bft) 97,87 %
25.08.2018 23:54 11,6 C 10,6 C 10,6 C 84 % 1014,0 hPa 0,0 l/m 0 min 0 min 0 W/m 0,0 km/h (0 Bft) 100,00 %
25.08.2018 23:56 11,6 C 10,6 C 10,6 C 84 % 1013,9 hPa 0,0 l/m 0 min 0 min 0 W/m 2,3 km/h (1 Bft) 94,83 %
25.08.2018 23:58 11,5 C 10,6 C 10,6 C 84 % 1014,0 hPa 0,0 l/m 0 min 0 min 0 W/m 2,3 km/h (1 Bft) 97,87 %
_ Min-Zeit 23:58 23:40 07:02 15:24 05:40 - - - - 20:40 16:32
Minimum _ 11,5 C 10,0 C 10,6 C 62 % 1006,3 hPa - - - - 0,0 km/h (0 Bft) 89,19 %
_ Max-Zeit 14:54 12:40 14:36 07:54 23:04 04:26 08:24 03:58 14:32 11:06 00:58
Maximum _ 18,8 C 25,0 C 17,8 C 94 % 1014,0 hPa 0,2 l/m 2 min 2 min 1026 W/m 22,5 km/h
N-NO (4 Bft)
100,00 %
Durchschnitt _ 15,0 C 14,7 C 13,8 C 75 % 1009,5 hPa #1,2 l/m #6:22 h #2:16 h 310 W/m 8,1 km/h (2 Bft) 97,45 %
© 2018 W. Hausmann